Wetterdaten: Sonntag, 13.12.2015
Datum Zeit Temp. Aussen Temp. o. S. +5cm Feuchte Auss BlattFeu 1 Luftdruck Regen Sonnenschein Regendauer Solar Windben Empfang
13.12.2015 00:00 10,4 C 10,6 C 8,9 C 86 % 0 lf 1015,1 hPa 0,0 l/m 0 min 0 min 0 W/m 35,6 km/h (5 Bft) 97,83 %
13.12.2015 00:02 10,4 C 10,6 C 8,9 C 86 % 0 lf 1015,3 hPa 0,0 l/m 0 min 0 min 0 W/m 12,6 km/h (3 Bft) 12,50 %
13.12.2015 00:05 10,4 C 10,6 C 8,9 C 86 % 0 lf 1015,4 hPa 0,0 l/m 0 min 0 min 0 W/m 43,9 km/h (6 Bft) 86,57 %
13.12.2015 00:06 10,4 C 10,6 C 8,9 C 86 % 0 lf 1015,4 hPa 0,0 l/m 0 min 0 min 0 W/m 33,5 km/h (5 Bft) 91,67 %
13.12.2015 00:08 10,4 C 10,6 C 8,9 C 86 % 0 lf 1015,3 hPa 0,0 l/m 0 min 0 min 0 W/m 39,7 km/h (6 Bft) 95,65 %
13.12.2015 00:10 10,4 C 10,6 C 8,9 C 86 % 0 lf 1015,3 hPa 0,0 l/m 0 min 0 min 0 W/m 41,8 km/h (6 Bft) 93,62 %
13.12.2015 00:12 10,4 C 10,6 C 8,9 C 85 % 0 lf 1015,2 hPa 0,0 l/m 0 min 0 min 0 W/m 27,2 km/h (4 Bft) 97,87 %
13.12.2015 00:14 10,4 C 10,6 C 8,9 C 86 % 0 lf 1015,0 hPa 0,0 l/m 0 min 0 min 0 W/m 27,2 km/h (4 Bft) 97,87 %
13.12.2015 00:16 10,4 C 10,6 C 8,9 C 86 % 0 lf 1015,0 hPa 0,0 l/m 0 min 0 min 0 W/m 39,7 km/h (6 Bft) 97,87 %
13.12.2015 00:18 10,4 C 10,6 C 8,9 C 86 % 0 lf 1015,1 hPa 0,0 l/m 0 min 0 min 0 W/m 31,4 km/h (5 Bft) 97,87 %
13.12.2015 00:20 10,4 C 10,6 C 8,9 C 86 % 0 lf 1015,0 hPa 0,0 l/m 0 min 0 min 0 W/m 35,6 km/h (5 Bft) 97,83 %
13.12.2015 00:22 10,4 C 10,6 C 8,9 C 86 % 0 lf 1014,9 hPa 0,0 l/m 0 min 0 min 0 W/m 39,7 km/h (6 Bft) 97,87 %
13.12.2015 00:24 10,4 C 10,6 C 8,9 C 86 % 0 lf 1014,9 hPa 0,0 l/m 0 min 0 min 0 W/m 35,6 km/h (5 Bft) 97,87 %
13.12.2015 00:26 10,4 C 10,6 C 8,9 C 86 % 0 lf 1014,9 hPa 0,0 l/m 0 min 0 min 0 W/m 43,9 km/h (6 Bft) 93,62 %
13.12.2015 00:28 10,4 C 10,6 C 8,9 C 86 % 0 lf 1014,8 hPa 0,0 l/m 0 min 0 min 0 W/m 46,0 km/h (6 Bft) 97,87 %
13.12.2015 00:30 10,4 C 10,6 C 8,9 C 86 % 0 lf 1014,9 hPa 0,0 l/m 0 min 0 min 0 W/m 41,8 km/h (6 Bft) 97,87 %
13.12.2015 00:32 10,4 C 10,6 C 8,9 C 86 % 0 lf 1014,9 hPa 0,0 l/m 0 min 0 min 0 W/m 35,6 km/h (5 Bft) 97,83 %
13.12.2015 00:34 10,4 C 10,6 C 8,9 C 85 % 0 lf 1014,8 hPa 0,0 l/m 0 min 0 min 0 W/m 46,0 km/h (6 Bft) 95,74 %
13.12.2015 00:36 10,4 C 10,6 C 8,9 C 85 % 0 lf 1014,8 hPa 0,0 l/m 0 min 0 min 0 W/m 41,8 km/h (6 Bft) 97,87 %
13.12.2015 00:38 10,4 C 10,6 C 8,9 C 85 % 0 lf 1014,9 hPa 0,0 l/m 0 min 0 min 0 W/m 39,7 km/h (6 Bft) 97,87 %
13.12.2015 00:40 10,4 C 10,6 C 8,9 C 85 % 0 lf 1014,7 hPa 0,0 l/m 0 min 0 min 0 W/m 39,7 km/h (6 Bft) 97,87 %
13.12.2015 00:42 10,4 C 10,6 C 8,9 C 85 % 0 lf 1014,8 hPa 0,0 l/m 0 min 0 min 0 W/m 50,2 km/h (7 Bft) 91,49 %
13.12.2015 00:44 10,4 C 10,6 C 8,9 C 85 % 0 lf 1014,8 hPa 0,0 l/m 0 min 0 min 0 W/m 48,1 km/h (6 Bft) 97,83 %
13.12.2015 00:46 10,4 C 10,6 C 8,9 C 85 % 0 lf 1014,7 hPa 0,0 l/m 0 min 0 min 0 W/m 39,7 km/h (6 Bft) 97,87 %
13.12.2015 00:48 10,4 C 10,6 C 8,9 C 85 % 0 lf 1014,7 hPa 0,0 l/m 0 min 0 min 0 W/m 39,7 km/h (6 Bft) 97,87 %
13.12.2015 00:50 10,4 C 10,6 C 8,9 C 85 % 0 lf 1014,7 hPa 0,0 l/m 0 min 0 min 0 W/m 35,6 km/h (5 Bft) 95,74 %
13.12.2015 00:52 10,4 C 10,6 C 8,9 C 85 % 0 lf 1014,7 hPa 0,0 l/m 0 min 0 min 0 W/m 54,4 km/h (7 Bft) 95,74 %
13.12.2015 00:54 10,4 C 10,6 C 8,9 C 85 % 0 lf 1014,5 hPa 0,0 l/m 0 min 0 min 0 W/m 31,4 km/h (5 Bft) 95,74 %
13.12.2015 00:56 10,4 C 10,6 C 8,9 C 85 % 0 lf 1014,4 hPa 0,0 l/m 0 min 0 min 0 W/m 39,7 km/h (6 Bft) 97,83 %
13.12.2015 00:58 10,4 C 10,6 C 8,9 C 85 % 0 lf 1014,4 hPa 0,0 l/m 0 min 0 min 0 W/m 39,7 km/h (6 Bft) 97,87 %
13.12.2015 01:00 10,4 C 10,6 C 8,9 C 85 % 0 lf 1014,6 hPa 0,0 l/m 0 min 0 min 0 W/m 46,0 km/h (6 Bft) 93,62 %
13.12.2015 01:02 10,4 C 10,6 C 8,9 C 85 % 0 lf 1014,5 hPa 0,0 l/m 0 min 0 min 0 W/m 29,3 km/h (5 Bft) 97,87 %
13.12.2015 01:04 10,4 C 10,6 C 8,9 C 85 % 0 lf 1014,5 hPa 0,0 l/m 0 min 0 min 0 W/m 33,5 km/h (5 Bft) 97,87 %
13.12.2015 01:06 10,4 C 10,6 C 8,9 C 85 % 0 lf 1014,6 hPa 0,0 l/m 0 min 0 min 0 W/m 62,8 km/h (8 Bft) 95,65 %
13.12.2015 01:08 10,4 C 10,6 C 8,9 C 85 % 0 lf 1014,5 hPa 0,0 l/m 0 min 0 min 0 W/m 60,7 km/h (7 Bft) 95,74 %
13.12.2015 01:10 10,4 C 10,6 C 8,9 C 85 % 0 lf 1014,6 hPa 0,0 l/m 0 min 0 min 0 W/m 46,0 km/h (6 Bft) 91,49 %
13.12.2015 01:12 10,4 C 10,6 C 8,9 C 85 % 0 lf 1014,6 hPa 0,0 l/m 0 min 0 min 0 W/m 37,7 km/h (5 Bft) 97,87 %
13.12.2015 01:14 10,4 C 10,6 C 8,9 C 85 % 0 lf 1014,6 hPa 0,0 l/m 0 min 0 min 0 W/m 46,0 km/h (6 Bft) 97,87 %
13.12.2015 01:16 10,4 C 10,6 C 8,9 C 85 % 0 lf 1014,6 hPa 0,0 l/m 0 min 0 min 0 W/m 37,7 km/h (5 Bft) 97,87 %
13.12.2015 01:18 10,4 C 10,6 C 8,9 C 85 % 0 lf 1014,4 hPa 0,0 l/m 0 min 0 min 0 W/m 46,0 km/h (6 Bft) 95,65 %
13.12.2015 01:20 10,4 C 10,6 C 8,9 C 85 % 0 lf 1014,5 hPa 0,0 l/m 0 min 0 min 0 W/m 41,8 km/h (6 Bft) 95,74 %
13.12.2015 01:22 10,4 C 10,6 C 8,9 C 85 % 0 lf 1014,4 hPa 0,0 l/m 0 min 0 min 0 W/m 48,1 km/h (6 Bft) 97,87 %
13.12.2015 01:24 10,4 C 10,6 C 8,9 C 85 % 0 lf 1014,4 hPa 0,0 l/m 0 min 0 min 0 W/m 39,7 km/h (6 Bft) 95,74 %
13.12.2015 01:26 10,4 C 10,6 C 8,9 C 86 % 0 lf 1014,4 hPa 0,0 l/m 0 min 0 min 0 W/m 37,7 km/h (5 Bft) 97,87 %
13.12.2015 01:28 10,4 C 10,6 C 8,9 C 86 % 0 lf 1014,4 hPa 0,0 l/m 0 min 0 min 0 W/m 35,6 km/h (5 Bft) 93,62 %
13.12.2015 01:30 10,4 C 10,6 C 8,9 C 86 % 0 lf 1014,3 hPa 0,0 l/m 0 min 0 min 0 W/m 54,4 km/h (7 Bft) 95,65 %
13.12.2015 01:32 10,4 C 10,6 C 8,9 C 86 % 0 lf 1014,3 hPa 0,0 l/m 0 min 0 min 0 W/m 48,1 km/h (6 Bft) 95,74 %
13.12.2015 01:34 10,4 C 10,6 C 8,9 C 86 % 0 lf 1014,3 hPa 0,0 l/m 0 min 0 min 0 W/m 46,0 km/h (6 Bft) 97,87 %
13.12.2015 01:36 10,4 C 10,6 C 8,9 C 86 % 0 lf 1014,2 hPa 0,0 l/m 0 min 0 min 0 W/m 35,6 km/h (5 Bft) 93,62 %
13.12.2015 01:38 10,4 C 10,6 C 8,9 C 86 % 0 lf 1014,3 hPa 0,0 l/m 0 min 0 min 0 W/m 37,7 km/h (5 Bft) 95,74 %
13.12.2015 01:40 10,4 C 10,6 C 8,9 C 86 % 0 lf 1014,2 hPa 0,0 l/m 0 min 0 min 0 W/m 46,0 km/h (6 Bft) 95,74 %
13.12.2015 01:42 10,4 C 10,6 C 8,9 C 86 % 0 lf 1014,2 hPa 0,0 l/m 0 min 0 min 0 W/m 35,6 km/h (5 Bft) 95,65 %
13.12.2015 01:44 10,4 C 10,6 C 8,9 C 86 % 0 lf 1014,2 hPa 0,0 l/m 0 min 0 min 0 W/m 39,7 km/h (6 Bft) 95,74 %
13.12.2015 01:46 10,4 C 10,6 C 8,9 C 86 % 0 lf 1014,2 hPa 0,0 l/m 0 min 0 min 0 W/m 50,2 km/h (7 Bft) 95,74 %
13.12.2015 01:48 10,4 C 10,6 C 8,9 C 86 % 0 lf 1014,2 hPa 0,0 l/m 0 min 0 min 0 W/m 43,9 km/h (6 Bft) 95,74 %
13.12.2015 01:50 10,4 C 10,6 C 8,9 C 86 % 0 lf 1014,6 hPa 0,0 l/m 0 min 0 min 0 W/m 46,0 km/h (6 Bft) 93,62 %
13.12.2015 01:52 10,3 C 10,6 C 8,9 C 86 % 0 lf 1014,3 hPa 0,0 l/m 0 min 0 min 0 W/m 37,7 km/h (5 Bft) 93,62 %
13.12.2015 01:54 10,3 C 10,6 C 8,9 C 86 % 0 lf 1014,4 hPa 0,0 l/m 0 min 0 min 0 W/m 46,0 km/h (6 Bft) 93,48 %
13.12.2015 01:56 10,3 C 10,6 C 8,9 C 86 % 0 lf 1014,4 hPa 0,0 l/m 0 min 0 min 0 W/m 46,0 km/h (6 Bft) 93,62 %
13.12.2015 01:58 10,3 C 10,6 C 8,9 C 86 % 0 lf 1014,4 hPa 0,0 l/m 0 min 0 min 0 W/m 39,7 km/h (6 Bft) 95,74 %
13.12.2015 02:00 10,3 C 10,6 C 8,9 C 86 % 0 lf 1014,3 hPa 0,0 l/m 0 min 0 min 0 W/m 39,7 km/h (6 Bft) 93,62 %
13.12.2015 02:02 10,3 C 10,6 C 8,9 C 86 % 0 lf 1014,3 hPa 0,0 l/m 0 min 0 min 0 W/m 29,3 km/h (5 Bft) 95,74 %
13.12.2015 02:04 10,3 C 10,6 C 8,9 C 86 % 0 lf 1014,3 hPa 0,0 l/m 0 min 0 min 0 W/m 35,6 km/h (5 Bft) 93,62 %
13.12.2015 02:06 10,3 C 10,6 C 8,9 C 86 % 0 lf 1014,3 hPa 0,0 l/m 0 min 0 min 0 W/m 46,0 km/h (6 Bft) 93,48 %
13.12.2015 02:08 10,3 C 10,6 C 8,9 C 86 % 0 lf 1014,2 hPa 0,0 l/m 0 min 0 min 0 W/m 46,0 km/h (6 Bft) 93,62 %
13.12.2015 02:10 10,3 C 10,6 C 8,9 C 86 % 0 lf 1014,1 hPa 0,0 l/m 0 min 0 min 0 W/m 35,6 km/h (5 Bft) 93,62 %
13.12.2015 02:12 10,3 C 10,6 C 8,9 C 86 % 0 lf 1014,2 hPa 0,0 l/m 0 min 0 min 0 W/m 37,7 km/h (5 Bft) 95,74 %
13.12.2015 02:14 10,3 C 10,6 C 8,9 C 86 % 0 lf 1014,2 hPa 0,0 l/m 0 min 0 min 0 W/m 35,6 km/h (5 Bft) 91,49 %
13.12.2015 02:16 10,3 C 10,6 C 8,9 C 86 % 0 lf 1014,2 hPa 0,0 l/m 0 min 0 min 0 W/m 33,5 km/h (5 Bft) 95,65 %
13.12.2015 02:18 10,3 C 10,6 C 8,9 C 86 % 0 lf 1014,2 hPa 0,0 l/m 0 min 0 min 0 W/m 43,9 km/h (6 Bft) 97,87 %
13.12.2015 02:20 10,3 C 10,6 C 8,9 C 86 % 0 lf 1014,3 hPa 0,0 l/m 0 min 0 min 0 W/m 43,9 km/h (6 Bft) 95,74 %
13.12.2015 02:22 10,3 C 10,6 C 8,9 C 86 % 0 lf 1014,2 hPa 0,0 l/m 0 min 0 min 0 W/m 33,5 km/h (5 Bft) 93,62 %
13.12.2015 02:24 10,3 C 10,6 C 8,9 C 86 % 0 lf 1014,1 hPa 0,0 l/m 0 min 0 min 0 W/m 48,1 km/h (6 Bft) 95,74 %
13.12.2015 02:26 10,3 C 10,6 C 8,9 C 86 % 0 lf 1014,1 hPa 0,0 l/m 0 min 0 min 0 W/m 39,7 km/h (6 Bft) 97,87 %
13.12.2015 02:28 10,3 C 10,6 C 8,9 C 86 % 0 lf 1014,2 hPa 0,0 l/m 0 min 0 min 0 W/m 35,6 km/h (5 Bft) 93,48 %
13.12.2015 02:30 10,3 C 10,6 C 8,9 C 86 % 0 lf 1014,2 hPa 0,0 l/m 0 min 0 min 0 W/m 35,6 km/h (5 Bft) 97,87 %
13.12.2015 02:32 10,3 C 10,6 C 8,9 C 86 % 0 lf 1014,3 hPa 0,0 l/m 0 min 0 min 0 W/m 46,0 km/h (6 Bft) 97,87 %
13.12.2015 02:34 10,3 C 10,6 C 8,9 C 86 % 0 lf 1014,4 hPa 0,0 l/m 0 min 0 min 0 W/m 37,7 km/h (5 Bft) 97,87 %
13.12.2015 02:36 10,3 C 10,6 C 8,9 C 86 % 0 lf 1014,3 hPa 0,0 l/m 0 min 0 min 0 W/m 35,6 km/h (5 Bft) 97,87 %
13.12.2015 02:38 10,3 C 10,6 C 8,9 C 86 % 0 lf 1014,5 hPa 0,0 l/m 0 min 0 min 0 W/m 37,7 km/h (5 Bft) 100,00 %
13.12.2015 02:40 10,3 C 10,6 C 8,9 C 86 % 0 lf 1014,3 hPa 0,0 l/m 0 min 0 min 0 W/m 39,7 km/h (6 Bft) 100,00 %
13.12.2015 02:42 10,4 C 10,6 C 8,9 C 86 % 0 lf 1014,4 hPa 0,0 l/m 0 min 0 min 0 W/m 39,7 km/h (6 Bft) 100,00 %
13.12.2015 02:44 10,3 C 10,6 C 8,9 C 86 % 0 lf 1014,4 hPa 0,0 l/m 0 min 0 min 0 W/m 48,1 km/h (6 Bft) 97,87 %
13.12.2015 02:46 10,4 C 10,6 C 8,9 C 86 % 0 lf 1014,4 hPa 0,0 l/m 0 min 0 min 0 W/m 41,8 km/h (6 Bft) 93,62 %
13.12.2015 02:48 10,4 C 10,6 C 8,9 C 86 % 0 lf 1014,5 hPa 0,0 l/m 0 min 0 min 0 W/m 37,7 km/h (5 Bft) 100,00 %
13.12.2015 02:50 10,4 C 10,6 C 8,9 C 86 % 0 lf 1014,6 hPa 0,0 l/m 0 min 0 min 0 W/m 52,3 km/h (7 Bft) 100,00 %
13.12.2015 02:52 10,4 C 10,6 C 8,9 C 86 % 0 lf 1014,4 hPa 0,0 l/m 0 min 0 min 0 W/m 54,4 km/h (7 Bft) 95,74 %
13.12.2015 02:54 10,4 C 10,6 C 8,9 C 86 % 0 lf 1014,4 hPa 0,0 l/m 0 min 0 min 0 W/m 48,1 km/h (6 Bft) 97,83 %
13.12.2015 02:56 10,4 C 10,6 C 8,9 C 86 % 0 lf 1014,4 hPa 0,0 l/m 0 min 0 min 0 W/m 35,6 km/h (5 Bft) 95,74 %
13.12.2015 02:58 10,4 C 10,6 C 8,9 C 86 % 0 lf 1014,2 hPa 0,0 l/m 0 min 0 min 0 W/m 46,0 km/h (6 Bft) 95,74 %
13.12.2015 03:00 10,4 C 10,6 C 8,9 C 86 % 0 lf 1014,3 hPa 0,0 l/m 0 min 0 min 0 W/m 46,0 km/h (6 Bft) 97,87 %
13.12.2015 03:02 10,4 C 10,6 C 8,9 C 86 % 0 lf 1014,3 hPa 0,0 l/m 0 min 0 min 0 W/m 37,7 km/h (5 Bft) 95,74 %
13.12.2015 03:04 10,4 C 10,6 C 8,9 C 86 % 0 lf 1014,5 hPa 0,0 l/m 0 min 0 min 0 W/m 50,2 km/h (7 Bft) 93,48 %
13.12.2015 03:06 10,4 C 10,6 C 8,9 C 86 % 0 lf 1014,3 hPa 0,0 l/m 0 min 0 min 0 W/m 39,7 km/h (6 Bft) 97,87 %
13.12.2015 03:08 10,4 C 10,6 C 8,9 C 86 % 0 lf 1014,3 hPa 0,0 l/m 0 min 0 min 0 W/m 39,7 km/h (6 Bft) 93,62 %
13.12.2015 03:10 10,4 C 10,6 C 8,9 C 86 % 1 lf 1014,2 hPa 0,0 l/m 0 min 0 min 0 W/m 35,6 km/h (5 Bft) 100,00 %
13.12.2015 03:12 10,4 C 10,6 C 8,9 C 86 % 0 lf 1014,3 hPa 0,0 l/m 0 min 0 min 0 W/m 37,7 km/h (5 Bft) 97,87 %
13.12.2015 03:14 10,4 C 10,6 C 8,9 C 87 % 1 lf 1014,3 hPa 0,0 l/m 0 min 0 min 0 W/m 37,7 km/h (5 Bft) 97,87 %
13.12.2015 03:16 10,4 C 10,6 C 8,9 C 87 % 0 lf 1014,3 hPa 0,0 l/m 0 min 0 min 0 W/m 50,2 km/h (7 Bft) 97,83 %
13.12.2015 03:18 10,4 C 10,6 C 8,9 C 87 % 0 lf 1014,6 hPa 0,0 l/m 0 min 0 min 0 W/m 46,0 km/h (6 Bft) 95,74 %
13.12.2015 03:20 10,4 C 10,6 C 8,9 C 87 % 0 lf 1014,3 hPa 0,0 l/m 0 min 0 min 0 W/m 27,2 km/h (4 Bft) 97,87 %
13.12.2015 03:22 10,4 C 10,6 C 8,9 C 87 % 0 lf 1014,4 hPa 0,0 l/m 0 min 0 min 0 W/m 41,8 km/h (6 Bft) 97,87 %
13.12.2015 03:24 10,4 C 10,6 C 8,9 C 87 % 0 lf 1014,5 hPa 0,0 l/m 0 min 0 min 0 W/m 41,8 km/h (6 Bft) 97,87 %
13.12.2015 03:26 10,4 C 10,6 C 8,9 C 87 % 0 lf 1014,3 hPa 0,0 l/m 0 min 0 min 0 W/m 46,0 km/h (6 Bft) 93,48 %
13.12.2015 03:28 10,4 C 10,6 C 8,9 C 87 % 0 lf 1014,2 hPa 0,0 l/m 0 min 0 min 0 W/m 33,5 km/h (5 Bft) 97,87 %
13.12.2015 03:30 10,4 C 10,6 C 8,9 C 87 % 0 lf 1014,3 hPa 0,0 l/m 0 min 0 min 0 W/m 48,1 km/h (6 Bft) 100,00 %
13.12.2015 03:32 10,4 C 10,6 C 8,9 C 87 % 3 lf 1014,4 hPa 0,0 l/m 0 min 2 min 0 W/m 35,6 km/h (5 Bft) 100,00 %
13.12.2015 03:34 10,4 C 10,6 C 8,9 C 87 % 9 lf 1014,2 hPa 0,0 l/m 0 min 2 min 0 W/m 37,7 km/h (5 Bft) 97,87 %
13.12.2015 03:36 10,4 C 10,0 C 8,9 C 87 % 15 lf 1014,3 hPa 0,0 l/m 0 min 2 min 0 W/m 48,1 km/h (6 Bft) 100,00 %
13.12.2015 03:38 10,3 C 9,4 C 8,3 C 87 % 15 lf 1014,3 hPa 0,0 l/m 0 min 2 min 0 W/m 37,7 km/h (5 Bft) 97,83 %
13.12.2015 03:40 10,3 C 9,4 C 8,3 C 88 % 15 lf 1014,4 hPa 0,0 l/m 0 min 2 min 0 W/m 37,7 km/h (5 Bft) 100,00 %
13.12.2015 03:42 10,3 C 9,4 C 7,8 C 88 % 15 lf 1014,2 hPa 0,0 l/m 0 min 2 min 0 W/m 35,6 km/h (5 Bft) 100,00 %
13.12.2015 03:44 10,2 C 9,4 C 7,8 C 88 % 15 lf 1014,3 hPa 0,0 l/m 0 min 2 min 0 W/m 39,7 km/h (6 Bft) 95,74 %
13.12.2015 03:46 10,2 C 9,4 C 7,8 C 88 % 15 lf 1014,3 hPa 0,0 l/m 0 min 2 min 0 W/m 29,3 km/h (5 Bft) 97,87 %
13.12.2015 03:48 10,2 C 9,4 C 7,8 C 88 % 15 lf 1014,2 hPa 0,0 l/m 0 min 2 min 0 W/m 35,6 km/h (5 Bft) 97,87 %
13.12.2015 03:50 10,1 C 9,4 C 7,8 C 89 % 15 lf 1014,3 hPa 0,0 l/m 0 min 2 min 0 W/m 35,6 km/h (5 Bft) 97,83 %
13.12.2015 03:52 10,1 C 9,4 C 7,8 C 89 % 15 lf 1014,2 hPa 0,0 l/m 0 min 2 min 0 W/m 35,6 km/h (5 Bft) 93,62 %
13.12.2015 03:54 10,0 C 9,4 C 7,8 C 89 % 15 lf 1014,2 hPa 0,0 l/m 0 min 2 min 0 W/m 46,0 km/h (6 Bft) 97,87 %
13.12.2015 03:56 10,0 C 9,4 C 7,8 C 89 % 15 lf 1014,4 hPa 0,0 l/m 0 min 2 min 0 W/m 33,5 km/h (5 Bft) 97,87 %
13.12.2015 03:58 9,9 C 9,4 C 7,8 C 90 % 15 lf 1014,4 hPa 0,0 l/m 0 min 2 min 0 W/m 39,7 km/h (6 Bft) 95,74 %
13.12.2015 04:00 9,9 C 9,4 C 7,8 C 90 % 15 lf 1014,2 hPa 0,0 l/m 0 min 2 min 0 W/m 35,6 km/h (5 Bft) 95,74 %
13.12.2015 04:02 9,9 C 9,4 C 7,8 C 90 % 15 lf 1014,2 hPa 0,0 l/m 0 min 2 min 0 W/m 33,5 km/h (5 Bft) 100,00 %
13.12.2015 04:04 9,9 C 9,4 C 7,8 C 90 % 15 lf 1014,3 hPa 0,0 l/m 0 min 2 min 0 W/m 33,5 km/h (5 Bft) 91,49 %
13.12.2015 04:06 9,9 C 9,4 C 7,8 C 90 % 15 lf 1014,3 hPa 0,0 l/m 0 min 2 min 0 W/m 37,7 km/h (5 Bft) 97,87 %
13.12.2015 04:08 9,9 C 9,4 C 7,8 C 90 % 15 lf 1014,4 hPa 0,0 l/m 0 min 2 min 0 W/m 41,8 km/h (6 Bft) 97,87 %
13.12.2015 04:10 9,8 C 9,4 C 7,8 C 90 % 15 lf 1014,3 hPa 0,0 l/m 0 min 2 min 0 W/m 33,5 km/h (5 Bft) 95,74 %
13.12.2015 04:12 9,8 C 9,4 C 7,8 C 90 % 15 lf 1014,3 hPa 0,0 l/m 0 min 2 min 0 W/m 35,6 km/h (5 Bft) 97,87 %
13.12.2015 04:14 9,8 C 9,4 C 7,8 C 90 % 15 lf 1014,3 hPa 0,0 l/m 0 min 2 min 0 W/m 33,5 km/h (5 Bft) 97,83 %
13.12.2015 04:16 9,8 C 9,4 C 7,8 C 90 % 15 lf 1014,4 hPa 0,0 l/m 0 min 2 min 0 W/m 33,5 km/h (5 Bft) 97,87 %
13.12.2015 04:18 9,8 C 9,4 C 7,8 C 90 % 15 lf 1014,3 hPa 0,0 l/m 0 min 0 min 0 W/m 31,4 km/h (5 Bft) 93,62 %
13.12.2015 04:20 9,8 C 10,0 C 7,8 C 90 % 15 lf 1014,3 hPa 0,0 l/m 0 min 2 min 0 W/m 29,3 km/h (5 Bft) 97,87 %
13.12.2015 04:22 9,8 C 10,0 C 7,8 C 91 % 15 lf 1014,2 hPa 0,0 l/m 0 min 2 min 0 W/m 29,3 km/h (5 Bft) 93,62 %
13.12.2015 04:24 9,8 C 10,0 C 7,8 C 91 % 15 lf 1014,3 hPa 0,0 l/m 0 min 2 min 0 W/m 31,4 km/h (5 Bft) 94,12 %
13.12.2015 04:26 9,8 C 10,0 C 7,8 C 91 % 15 lf 1014,3 hPa 0,0 l/m 0 min 2 min 0 W/m 39,7 km/h (6 Bft) 93,33 %
13.12.2015 04:28 9,8 C 10,0 C 7,8 C 91 % 15 lf 1014,3 hPa 0,0 l/m 0 min 2 min 0 W/m 39,7 km/h (6 Bft) 89,36 %
13.12.2015 04:30 9,8 C 10,0 C 7,8 C 91 % 15 lf 1014,2 hPa 0,0 l/m 0 min 2 min 0 W/m 37,7 km/h (5 Bft) 93,62 %
13.12.2015 04:32 9,8 C 10,0 C 8,3 C 91 % 15 lf 1014,2 hPa 0,0 l/m 0 min 2 min 0 W/m 39,7 km/h (6 Bft) 95,74 %
13.12.2015 04:34 9,8 C 10,0 C 8,3 C 91 % 14 lf 1014,2 hPa 0,0 l/m 0 min 2 min 0 W/m 43,9 km/h (6 Bft) 93,62 %
13.12.2015 04:36 9,8 C 10,0 C 8,3 C 91 % 12 lf 1014,3 hPa 0,0 l/m 0 min 2 min 0 W/m 37,7 km/h (5 Bft) 91,30 %
13.12.2015 04:38 9,8 C 10,0 C 8,3 C 91 % 8 lf 1014,3 hPa 0,0 l/m 0 min 2 min 0 W/m 43,9 km/h (6 Bft) 93,62 %
13.12.2015 04:40 9,8 C 10,0 C 8,3 C 90 % 4 lf 1014,3 hPa 0,0 l/m 0 min 2 min 0 W/m 29,3 km/h (5 Bft) 91,49 %
13.12.2015 04:42 9,8 C 10,0 C 8,3 C 90 % 3 lf 1014,3 hPa 0,0 l/m 0 min 2 min 0 W/m 31,4 km/h (5 Bft) 91,49 %
13.12.2015 04:44 9,8 C 10,0 C 8,3 C 90 % 1 lf 1014,3 hPa 0,0 l/m 0 min 2 min 0 W/m 41,8 km/h (6 Bft) 91,49 %
13.12.2015 04:46 9,9 C 10,0 C 8,3 C 90 % 0 lf 1014,3 hPa 0,0 l/m 0 min 2 min 0 W/m 35,6 km/h (5 Bft) 91,49 %
13.12.2015 04:48 9,9 C 10,0 C 8,3 C 90 % 0 lf 1014,2 hPa 0,0 l/m 0 min 2 min 0 W/m 27,2 km/h (4 Bft) 91,30 %
13.12.2015 04:50 9,9 C 10,0 C 8,3 C 90 % 0 lf 1014,4 hPa 0,0 l/m 0 min 2 min 0 W/m 37,7 km/h (5 Bft) 89,36 %
13.12.2015 04:52 9,9 C 10,0 C 8,3 C 90 % 0 lf 1014,4 hPa 0,0 l/m 0 min 2 min 0 W/m 25,1 km/h (4 Bft) 93,62 %
13.12.2015 04:54 9,9 C 10,0 C 8,3 C 90 % 0 lf 1014,6 hPa 0,0 l/m 0 min 2 min 0 W/m 41,8 km/h (6 Bft) 91,49 %
13.12.2015 04:56 9,9 C 10,0 C 8,3 C 90 % 0 lf 1014,4 hPa 0,0 l/m 0 min 2 min 0 W/m 29,3 km/h (5 Bft) 91,49 %
13.12.2015 04:58 9,9 C 10,0 C 8,3 C 90 % 0 lf 1014,5 hPa 0,0 l/m 0 min 2 min 0 W/m 35,6 km/h (5 Bft) 93,62 %
13.12.2015 05:00 9,9 C 10,0 C 8,3 C 90 % 0 lf 1014,5 hPa 0,0 l/m 0 min 2 min 0 W/m 29,3 km/h (5 Bft) 91,30 %
13.12.2015 05:02 9,9 C 10,0 C 8,3 C 90 % 0 lf 1014,6 hPa 0,0 l/m 0 min 2 min 0 W/m 37,7 km/h (5 Bft) 87,23 %
13.12.2015 05:04 9,9 C 10,0 C 8,3 C 90 % 1 lf 1014,6 hPa 0,0 l/m 0 min 2 min 0 W/m 41,8 km/h (6 Bft) 91,49 %
13.12.2015 05:06 9,9 C 10,0 C 8,3 C 91 % 0 lf 1014,6 hPa 0,0 l/m 0 min 0 min 0 W/m 33,5 km/h (5 Bft) 91,49 %
13.12.2015 05:08 9,9 C 10,0 C 8,3 C 90 % 3 lf 1014,6 hPa 0,0 l/m 0 min 2 min 0 W/m 29,3 km/h (5 Bft) 93,62 %
13.12.2015 05:10 9,9 C 9,4 C 8,3 C 91 % 15 lf 1014,6 hPa 0,0 l/m 0 min 2 min 0 W/m 35,6 km/h (5 Bft) 89,36 %
13.12.2015 05:12 9,8 C 9,4 C 7,8 C 91 % 15 lf 1014,7 hPa 0,0 l/m 0 min 2 min 0 W/m 29,3 km/h (5 Bft) 91,30 %
13.12.2015 05:14 9,8 C 9,4 C 7,8 C 91 % 15 lf 1014,6 hPa 0,0 l/m 0 min 2 min 0 W/m 39,7 km/h (6 Bft) 95,74 %
13.12.2015 05:16 9,8 C 9,4 C 7,8 C 91 % 15 lf 1014,6 hPa 0,0 l/m 0 min 2 min 0 W/m 33,5 km/h (5 Bft) 95,74 %
13.12.2015 05:18 9,8 C 9,4 C 7,8 C 91 % 15 lf 1014,6 hPa 0,0 l/m 0 min 0 min 0 W/m 35,6 km/h (5 Bft) 95,74 %
13.12.2015 05:20 9,8 C 9,4 C 7,8 C 92 % 15 lf 1014,7 hPa 0,0 l/m 0 min 0 min 0 W/m 33,5 km/h (5 Bft) 95,74 %
13.12.2015 05:22 9,7 C 9,4 C 7,8 C 91 % 15 lf 1014,7 hPa 0,0 l/m 0 min 0 min 0 W/m 31,4 km/h (5 Bft) 97,14 %
13.12.2015 05:24 9,7 C 9,4 C 7,8 C 92 % 15 lf 1014,8 hPa 0,0 l/m 0 min 2 min 0 W/m 37,7 km/h (5 Bft) 100,00 %
13.12.2015 05:26 9,7 C 8,9 C 7,8 C 92 % 15 lf 1014,8 hPa 0,0 l/m 0 min 2 min 0 W/m 29,3 km/h (5 Bft) 100,00 %
13.12.2015 05:28 9,6 C 8,9 C 7,8 C 92 % 15 lf 1014,9 hPa 0,0 l/m 0 min 2 min 0 W/m 29,3 km/h (5 Bft) 97,83 %
13.12.2015 05:30 9,6 C 8,9 C 7,8 C 92 % 15 lf 1014,9 hPa 0,0 l/m 0 min 2 min 0 W/m 27,2 km/h (4 Bft) 100,00 %
13.12.2015 05:32 9,6 C 8,9 C 7,8 C 93 % 15 lf 1014,9 hPa 0,0 l/m 0 min 2 min 0 W/m 33,5 km/h (5 Bft) 97,87 %
13.12.2015 05:34 9,6 C 8,9 C 7,8 C 93 % 15 lf 1014,9 hPa 0,0 l/m 0 min 2 min 0 W/m 35,6 km/h (5 Bft) 100,00 %
13.12.2015 05:36 9,6 C 8,9 C 7,8 C 93 % 15 lf 1014,9 hPa 0,2 l/m 0 min 2 min 0 W/m 33,5 km/h (5 Bft) 97,87 %
13.12.2015 05:38 9,5 C 8,9 C 7,8 C 93 % 15 lf 1015,0 hPa 0,0 l/m 0 min 2 min 0 W/m 23,0 km/h (4 Bft) 100,00 %
13.12.2015 05:40 9,5 C 8,9 C 7,8 C 93 % 15 lf 1015,0 hPa 0,0 l/m 0 min 2 min 0 W/m 27,2 km/h (4 Bft) 95,74 %
13.12.2015 05:42 9,5 C 8,9 C 7,8 C 93 % 15 lf 1015,0 hPa 0,0 l/m 0 min 2 min 0 W/m 27,2 km/h (4 Bft) 100,00 %
13.12.2015 05:44 9,4 C 8,9 C 7,8 C 93 % 15 lf 1015,0 hPa 0,0 l/m 0 min 2 min 0 W/m 16,7 km/h (3 Bft) 100,00 %
13.12.2015 05:46 9,4 C 8,9 C 7,8 C 93 % 15 lf 1015,1 hPa 0,0 l/m 0 min 2 min 0 W/m 25,1 km/h (4 Bft) 97,87 %
13.12.2015 05:48 9,4 C 8,9 C 7,8 C 94 % 15 lf 1015,2 hPa 0,0 l/m 0 min 2 min 0 W/m 25,1 km/h (4 Bft) 97,87 %
13.12.2015 05:50 9,4 C 8,9 C 7,8 C 94 % 15 lf 1015,1 hPa 0,0 l/m 0 min 2 min 0 W/m 23,0 km/h (4 Bft) 97,87 %
13.12.2015 05:52 9,4 C 8,9 C 7,8 C 94 % 15 lf 1015,3 hPa 0,0 l/m 0 min 2 min 0 W/m 27,2 km/h (4 Bft) 97,83 %
13.12.2015 05:54 9,4 C 8,9 C 7,8 C 94 % 15 lf 1015,2 hPa 0,0 l/m 0 min 2 min 0 W/m 25,1 km/h (4 Bft) 100,00 %
13.12.2015 05:56 9,4 C 8,9 C 7,8 C 94 % 15 lf 1015,2 hPa 0,0 l/m 0 min 2 min 0 W/m 27,2 km/h (4 Bft) 100,00 %
13.12.2015 05:58 9,3 C 8,9 C 7,8 C 94 % 15 lf 1015,1 hPa 0,0 l/m 0 min 2 min 0 W/m 27,2 km/h (4 Bft) 100,00 %
13.12.2015 06:00 9,3 C 8,9 C 7,8 C 94 % 15 lf 1015,3 hPa 0,2 l/m 0 min 2 min 0 W/m 27,2 km/h (4 Bft) 97,87 %
13.12.2015 06:02 9,3 C 8,9 C 7,8 C 94 % 15 lf 1015,3 hPa 0,0 l/m 0 min 2 min 0 W/m 16,7 km/h (3 Bft) 97,83 %
13.12.2015 06:06 9,3 C 8,9 C 7,8 C 94 % 15 lf 1015,4 hPa 0,0 l/m 0 min 2 min 0 W/m 23,0 km/h (4 Bft) 100,00 %
13.12.2015 06:08 9,3 C 8,9 C 7,8 C 95 % 15 lf 1015,5 hPa 0,0 l/m 0 min 2 min 0 W/m 23,0 km/h (4 Bft) 100,00 %
13.12.2015 06:10 9,3 C 8,9 C 7,8 C 95 % 15 lf 1015,5 hPa 0,2 l/m 0 min 2 min 0 W/m 20,9 km/h (4 Bft) 97,87 %
13.12.2015 06:12 9,3 C 8,9 C 7,2 C 95 % 15 lf 1015,6 hPa 0,0 l/m 0 min 2 min 0 W/m 20,9 km/h (4 Bft) 97,87 %
13.12.2015 06:14 9,2 C 8,3 C 7,2 C 95 % 15 lf 1015,7 hPa 0,0 l/m 0 min 2 min 0 W/m 18,8 km/h (3 Bft) 100,00 %
13.12.2015 06:16 9,2 C 8,3 C 7,2 C 95 % 15 lf 1015,8 hPa 0,0 l/m 0 min 2 min 0 W/m 18,8 km/h (3 Bft) 100,00 %
13.12.2015 06:18 9,2 C 8,3 C 7,2 C 95 % 15 lf 1015,8 hPa 0,0 l/m 0 min 2 min 0 W/m 23,0 km/h (4 Bft) 100,00 %
13.12.2015 06:20 9,1 C 8,3 C 7,2 C 95 % 15 lf 1015,9 hPa 0,2 l/m 0 min 2 min 0 W/m 18,8 km/h (3 Bft) 95,74 %
13.12.2015 06:22 9,1 C 8,3 C 7,2 C 95 % 15 lf 1015,9 hPa 0,0 l/m 0 min 2 min 0 W/m 16,7 km/h (3 Bft) 97,87 %
13.12.2015 06:24 9,1 C 8,3 C 7,2 C 95 % 15 lf 1015,9 hPa 0,0 l/m 0 min 2 min 0 W/m 10,5 km/h (2 Bft) 97,87 %
13.12.2015 06:26 9,1 C 8,3 C 7,2 C 95 % 15 lf 1015,9 hPa 0,0 l/m 0 min 2 min 0 W/m 10,5 km/h (2 Bft) 95,65 %
13.12.2015 06:28 9,0 C 8,3 C 7,2 C 95 % 15 lf 1015,9 hPa 0,0 l/m 0 min 2 min 0 W/m 10,5 km/h (2 Bft) 100,00 %
13.12.2015 06:30 9,0 C 8,3 C 7,2 C 95 % 15 lf 1016,1 hPa 0,0 l/m 0 min 2 min 0 W/m 10,5 km/h (2 Bft) 95,74 %
13.12.2015 06:32 8,9 C 8,3 C 7,2 C 95 % 15 lf 1016,1 hPa 0,0 l/m 0 min 2 min 0 W/m 20,9 km/h (4 Bft) 100,00 %
13.12.2015 06:34 8,9 C 8,3 C 7,2 C 95 % 15 lf 1016,1 hPa 0,0 l/m 0 min 2 min 0 W/m 18,8 km/h (3 Bft) 100,00 %
13.12.2015 06:36 8,9 C 8,3 C 7,2 C 95 % 15 lf 1016,1 hPa 0,0 l/m 0 min 2 min 0 W/m 18,8 km/h (3 Bft) 97,87 %
13.12.2015 06:38 8,8 C 8,3 C 7,2 C 95 % 15 lf 1016,2 hPa 0,2 l/m 0 min 2 min 0 W/m 18,8 km/h (3 Bft) 97,83 %
13.12.2015 06:40 8,8 C 8,3 C 7,2 C 95 % 15 lf 1016,3 hPa 0,0 l/m 0 min 2 min 0 W/m 16,7 km/h (3 Bft) 97,87 %
13.12.2015 06:42 8,8 C 8,3 C 7,2 C 95 % 15 lf 1016,3 hPa 0,0 l/m 0 min 2 min 0 W/m 14,6 km/h (3 Bft) 97,87 %
13.12.2015 06:44 8,7 C 8,3 C 6,7 C 95 % 15 lf 1016,3 hPa 0,0 l/m 0 min 2 min 0 W/m 23,0 km/h (4 Bft) 93,62 %
13.12.2015 06:46 8,7 C 7,8 C 6,7 C 95 % 15 lf 1016,4 hPa 0,0 l/m 0 min 2 min 0 W/m 18,8 km/h (3 Bft) 95,74 %
13.12.2015 06:48 8,7 C 7,8 C 6,7 C 95 % 15 lf 1016,4 hPa 0,0 l/m 0 min 2 min 0 W/m 23,0 km/h (4 Bft) 93,48 %
13.12.2015 06:50 8,6 C 7,8 C 6,7 C 95 % 15 lf 1016,5 hPa 0,0 l/m 0 min 2 min 0 W/m 25,1 km/h (4 Bft) 100,00 %
13.12.2015 06:52 8,4 C 7,8 C 6,7 C 95 % 15 lf 1016,5 hPa 0,0 l/m 0 min 2 min 0 W/m 27,2 km/h (4 Bft) 97,87 %
13.12.2015 06:54 8,3 C 7,8 C 6,7 C 95 % 15 lf 1016,6 hPa 0,2 l/m 0 min 2 min 0 W/m 27,2 km/h (4 Bft) 95,74 %
13.12.2015 06:56 8,3 C 7,2 C 6,1 C 95 % 15 lf 1016,6 hPa 0,0 l/m 0 min 2 min 0 W/m 31,4 km/h (5 Bft) 97,87 %
13.12.2015 06:58 8,2 C 7,2 C 6,1 C 95 % 15 lf 1016,7 hPa 0,0 l/m 0 min 2 min 0 W/m 31,4 km/h (5 Bft) 97,87 %
13.12.2015 07:00 8,1 C 7,2 C 6,1 C 95 % 15 lf 1016,7 hPa 0,0 l/m 0 min 2 min 0 W/m 16,7 km/h (3 Bft) 97,83 %
13.12.2015 07:02 8,1 C 7,2 C 6,1 C 95 % 15 lf 1016,7 hPa 0,0 l/m 0 min 2 min 0 W/m 14,6 km/h (3 Bft) 95,74 %
13.12.2015 07:04 8,0 C 7,2 C 6,1 C 95 % 15 lf 1016,7 hPa 0,0 l/m 0 min 2 min 0 W/m 23,0 km/h (4 Bft) 93,62 %
13.12.2015 07:06 7,9 C 7,2 C 6,1 C 95 % 15 lf 1016,8 hPa 0,0 l/m 0 min 2 min 0 W/m 20,9 km/h (4 Bft) 93,62 %
13.12.2015 07:08 7,9 C 7,2 C 6,1 C 95 % 15 lf 1016,9 hPa 0,0 l/m 0 min 2 min 0 W/m 27,2 km/h (4 Bft) 95,74 %
13.12.2015 07:10 7,8 C 6,7 C 5,6 C 95 % 15 lf 1016,9 hPa 0,2 l/m 0 min 2 min 0 W/m 18,8 km/h (3 Bft) 100,00 %
13.12.2015 07:12 7,7 C 6,7 C 5,6 C 95 % 15 lf 1017,0 hPa 0,0 l/m 0 min 2 min 0 W/m 25,1 km/h (4 Bft) 97,83 %
13.12.2015 07:14 7,6 C 6,7 C 5,6 C 95 % 15 lf 1017,0 hPa 0,0 l/m 0 min 2 min 0 W/m 29,3 km/h (5 Bft) 97,87 %
13.12.2015 07:16 7,5 C 6,7 C 5,6 C 95 % 15 lf 1017,0 hPa 0,0 l/m 0 min 2 min 0 W/m 23,0 km/h (4 Bft) 97,87 %
13.12.2015 07:18 7,4 C 6,7 C 5,6 C 95 % 15 lf 1017,1 hPa 0,0 l/m 0 min 2 min 0 W/m 20,9 km/h (4 Bft) 100,00 %
13.12.2015 07:20 7,4 C 6,7 C 5,6 C 95 % 15 lf 1017,1 hPa 0,0 l/m 0 min 2 min 0 W/m 20,9 km/h (4 Bft) 95,74 %
13.12.2015 07:22 7,3 C 6,7 C 5,6 C 95 % 15 lf 1017,1 hPa 0,0 l/m 0 min 2 min 0 W/m 16,7 km/h (3 Bft) 91,49 %
13.12.2015 07:24 7,3 C 6,7 C 5,6 C 95 % 15 lf 1017,2 hPa 0,0 l/m 0 min 2 min 0 W/m 16,7 km/h (3 Bft) 95,65 %
13.12.2015 07:26 7,2 C 6,7 C 5,6 C 95 % 15 lf 1017,1 hPa 0,0 l/m 0 min 2 min 0 W/m 14,6 km/h (3 Bft) 95,74 %
13.12.2015 07:28 7,2 C 6,7 C 5,6 C 95 % 15 lf 1017,2 hPa 0,0 l/m 0 min 2 min 0 W/m 12,6 km/h (3 Bft) 93,62 %
13.12.2015 07:30 7,2 C 6,7 C 5,6 C 95 % 15 lf 1017,2 hPa 0,2 l/m 0 min 2 min 0 W/m 10,5 km/h (2 Bft) 91,49 %
13.12.2015 07:32 7,2 C 6,7 C 5,6 C 95 % 15 lf 1017,2 hPa 0,0 l/m 0 min 2 min 0 W/m 16,7 km/h (3 Bft) 95,83 %
13.12.2015 07:34 7,1 C 6,7 C 5,6 C 95 % 15 lf 1017,3 hPa 0,0 l/m 0 min 2 min 0 W/m 6,3 km/h (2 Bft) 91,49 %
13.12.2015 07:36 7,1 C 6,7 C 5,6 C 95 % 15 lf 1017,3 hPa 0,0 l/m 0 min 2 min 0 W/m 10,5 km/h (2 Bft) 91,30 %
13.12.2015 07:38 7,1 C 6,7 C 5,6 C 95 % 15 lf 1017,4 hPa 0,0 l/m 0 min 2 min 0 W/m 14,6 km/h (3 Bft) 93,62 %
13.12.2015 07:40 7,1 C 6,7 C 5,6 C 95 % 15 lf 1017,4 hPa 0,0 l/m 0 min 2 min 0 W/m 18,8 km/h (3 Bft) 93,62 %
13.12.2015 07:42 7,0 C 6,7 C 5,6 C 95 % 15 lf 1017,4 hPa 0,0 l/m 0 min 2 min 0 W/m 8,4 km/h (2 Bft) 93,75 %
13.12.2015 07:44 7,0 C 6,7 C 5,6 C 95 % 15 lf 1017,5 hPa 0,0 l/m 0 min 2 min 0 W/m 12,6 km/h (3 Bft) 95,74 %
13.12.2015 07:46 7,0 C 6,7 C 5,6 C 95 % 15 lf 1017,6 hPa 0,2 l/m 0 min 2 min 0 W/m 6,3 km/h (2 Bft) 93,48 %
13.12.2015 07:48 7,0 C 6,7 C 5,6 C 95 % 15 lf 1017,6 hPa 0,0 l/m 0 min 2 min 0 W/m 12,6 km/h (3 Bft) 93,62 %
13.12.2015 07:50 6,9 C 6,7 C 5,6 C 95 % 15 lf 1017,7 hPa 0,0 l/m 0 min 2 min 0 W/m 8,4 km/h (2 Bft) 89,36 %
13.12.2015 07:52 6,9 C 6,7 C 5,6 C 95 % 15 lf 1017,7 hPa 0,0 l/m 0 min 2 min 0 W/m 6,3 km/h (2 Bft) 91,49 %
13.12.2015 07:54 6,9 C 6,7 C 5,6 C 95 % 15 lf 1017,7 hPa 0,0 l/m 0 min 2 min 0 W/m 10,5 km/h (2 Bft) 93,62 %
13.12.2015 07:56 6,9 C 6,7 C 5,6 C 95 % 15 lf 1017,8 hPa 0,0 l/m 0 min 2 min 0 W/m 10,5 km/h (2 Bft) 91,49 %
13.12.2015 07:58 6,9 C 6,7 C 5,6 C 95 % 15 lf 1017,9 hPa 0,0 l/m 0 min 2 min 0 W/m 8,4 km/h (2 Bft) 91,30 %
13.12.2015 08:00 6,9 C 6,7 C 5,6 C 95 % 15 lf 1017,9 hPa 0,0 l/m 0 min 2 min 0 W/m 8,4 km/h (2 Bft) 93,62 %
13.12.2015 08:02 6,9 C 6,7 C 5,6 C 95 % 15 lf 1017,8 hPa 0,0 l/m 0 min 2 min 0 W/m 10,5 km/h (2 Bft) 91,49 %
13.12.2015 08:04 6,9 C 6,7 C 5,6 C 95 % 15 lf 1017,9 hPa 0,2 l/m 0 min 2 min 0 W/m 10,5 km/h (2 Bft) 93,62 %
13.12.2015 08:06 6,8 C 6,7 C 5,6 C 95 % 15 lf 1017,9 hPa 0,0 l/m 0 min 2 min 0 W/m 8,4 km/h (2 Bft) 93,62 %
13.12.2015 08:08 6,8 C 6,7 C 5,6 C 95 % 15 lf 1017,9 hPa 0,0 l/m 0 min 2 min 0 W/m 8,4 km/h (2 Bft) 91,49 %
13.12.2015 08:10 6,8 C 6,7 C 5,6 C 95 % 15 lf 1017,9 hPa 0,0 l/m 0 min 2 min 0 W/m 8,4 km/h (2 Bft) 91,30 %
13.12.2015 08:12 6,8 C 6,7 C 5,6 C 95 % 15 lf 1017,9 hPa 0,0 l/m 0 min 2 min 0 W/m 6,3 km/h (2 Bft) 97,87 %
13.12.2015 08:14 6,8 C 6,7 C 5,6 C 95 % 15 lf 1018,0 hPa 0,0 l/m 0 min 2 min 0 W/m 6,3 km/h (2 Bft) 93,62 %
13.12.2015 08:16 6,8 C 6,7 C 5,6 C 95 % 15 lf 1018,0 hPa 0,0 l/m 0 min 2 min 0 W/m 4,2 km/h (1 Bft) 91,49 %
13.12.2015 08:18 6,8 C 6,7 C 5,6 C 95 % 15 lf 1018,0 hPa 0,0 l/m 0 min 2 min 0 W/m 6,3 km/h (2 Bft) 93,62 %
13.12.2015 08:20 6,8 C 6,7 C 5,6 C 95 % 15 lf 1018,0 hPa 0,0 l/m 0 min 2 min 0 W/m 8,4 km/h (2 Bft) 95,74 %
13.12.2015 08:22 6,8 C 6,7 C 5,6 C 95 % 15 lf 1018,1 hPa 0,0 l/m 0 min 2 min 0 W/m 8,4 km/h (2 Bft) 95,65 %
13.12.2015 08:24 6,8 C 6,7 C 5,6 C 95 % 15 lf 1018,1 hPa 0,0 l/m 0 min 2 min 0 W/m 8,4 km/h (2 Bft) 93,62 %
13.12.2015 08:26 6,8 C 6,7 C 5,6 C 95 % 15 lf 1018,2 hPa 0,0 l/m 0 min 2 min 0 W/m 4,2 km/h (1 Bft) 95,74 %
13.12.2015 08:28 6,8 C 6,7 C 5,6 C 95 % 15 lf 1018,2 hPa 0,0 l/m 0 min 2 min 0 W/m 4,2 km/h (1 Bft) 87,23 %
13.12.2015 08:30 6,7 C 6,7 C 5,6 C 95 % 15 lf 1018,2 hPa 0,0 l/m 0 min 2 min 0 W/m 2,1 km/h (1 Bft) 95,74 %
13.12.2015 08:32 6,7 C 6,7 C 5,6 C 95 % 15 lf 1018,3 hPa 0,2 l/m 0 min 2 min 0 W/m 2,1 km/h (1 Bft) 93,75 %
13.12.2015 08:34 6,7 C 6,7 C 5,6 C 95 % 15 lf 1018,2 hPa 0,0 l/m 0 min 2 min 0 W/m 0,0 km/h (0 Bft) 95,65 %
13.12.2015 08:36 6,7 C 6,7 C 5,6 C 95 % 15 lf 1018,2 hPa 0,0 l/m 0 min 2 min 0 W/m 0,0 km/h (0 Bft) 95,74 %
13.12.2015 08:38 6,7 C 6,7 C 5,6 C 95 % 15 lf 1018,2 hPa 0,0 l/m 0 min 2 min 0 W/m 0,0 km/h (0 Bft) 93,62 %
13.12.2015 08:40 6,7 C 6,7 C 5,6 C 96 % 15 lf 1018,3 hPa 0,0 l/m 0 min 2 min 4 W/m 4,2 km/h (1 Bft) 93,62 %
13.12.2015 08:42 6,7 C 6,7 C 5,6 C 96 % 15 lf 1018,3 hPa 0,0 l/m 0 min 2 min 5 W/m 2,1 km/h (1 Bft) 93,62 %
13.12.2015 08:44 6,7 C 6,7 C 5,6 C 96 % 15 lf 1018,3 hPa 0,0 l/m 0 min 2 min 5 W/m 6,3 km/h (2 Bft) 93,62 %
13.12.2015 08:46 6,7 C 6,7 C 5,6 C 96 % 15 lf 1018,3 hPa 0,0 l/m 0 min 2 min 5 W/m 4,2 km/h (1 Bft) 93,48 %
13.12.2015 08:48 6,7 C 6,7 C 5,6 C 96 % 15 lf 1018,4 hPa 0,0 l/m 0 min 2 min 7 W/m 6,3 km/h (2 Bft) 93,62 %
13.12.2015 08:50 6,7 C 6,7 C 5,6 C 96 % 15 lf 1018,4 hPa 0,0 l/m 0 min 2 min 7 W/m 6,3 km/h (2 Bft) 95,74 %
13.12.2015 08:52 6,7 C 6,7 C 5,6 C 96 % 15 lf 1018,5 hPa 0,0 l/m 0 min 2 min 7 W/m 4,2 km/h (1 Bft) 95,74 %
13.12.2015 08:54 6,7 C 6,7 C 5,6 C 96 % 15 lf 1018,5 hPa 0,0 l/m 0 min 2 min 8 W/m 4,2 km/h (1 Bft) 93,62 %
13.12.2015 08:56 6,7 C 6,7 C 5,6 C 96 % 15 lf 1018,7 hPa 0,0 l/m 0 min 2 min 9 W/m 4,2 km/h (1 Bft) 97,83 %
13.12.2015 08:58 6,7 C 6,7 C 5,6 C 96 % 15 lf 1018,7 hPa 0,0 l/m 0 min 2 min 9 W/m 4,2 km/h (1 Bft) 97,87 %
13.12.2015 09:00 6,7 C 6,7 C 5,6 C 96 % 15 lf 1018,7 hPa 0,0 l/m 0 min 2 min 11 W/m 4,2 km/h (1 Bft) 91,49 %
13.12.2015 09:02 6,7 C 6,7 C 5,6 C 96 % 15 lf 1018,7 hPa 0,0 l/m 0 min 2 min 12 W/m 4,2 km/h (1 Bft) 100,00 %
13.12.2015 09:04 6,7 C 6,7 C 5,6 C 96 % 15 lf 1018,8 hPa 0,2 l/m 0 min 2 min 12 W/m 4,2 km/h (1 Bft) 100,00 %
13.12.2015 09:06 6,7 C 6,7 C 5,6 C 96 % 15 lf 1018,8 hPa 0,0 l/m 0 min 2 min 14 W/m 6,3 km/h (2 Bft) 95,74 %
13.12.2015 09:08 6,7 C 6,7 C 5,6 C 96 % 15 lf 1018,9 hPa 0,0 l/m 0 min 2 min 16 W/m 6,3 km/h (2 Bft) 100,00 %
13.12.2015 09:10 6,7 C 6,7 C 5,6 C 96 % 15 lf 1018,9 hPa 0,0 l/m 0 min 2 min 18 W/m 4,2 km/h (1 Bft) 100,00 %
13.12.2015 09:12 6,7 C 6,7 C 5,6 C 96 % 15 lf 1018,9 hPa 0,0 l/m 0 min 2 min 19 W/m 2,1 km/h (1 Bft) 100,00 %
13.12.2015 09:14 6,7 C 6,7 C 5,6 C 96 % 15 lf 1019,0 hPa 0,0 l/m 0 min 2 min 20 W/m 4,2 km/h (1 Bft) 100,00 %
13.12.2015 09:16 6,7 C 6,7 C 5,6 C 96 % 15 lf 1019,0 hPa 0,0 l/m 0 min 2 min 21 W/m 6,3 km/h (2 Bft) 97,87 %
13.12.2015 09:18 6,7 C 6,7 C 5,6 C 96 % 15 lf 1019,1 hPa 0,2 l/m 0 min 2 min 23 W/m 4,2 km/h (1 Bft) 97,87 %
13.12.2015 09:20 6,7 C 6,7 C 5,6 C 96 % 15 lf 1019,1 hPa 0,0 l/m 0 min 2 min 25 W/m 4,2 km/h (1 Bft) 100,00 %
13.12.2015 09:22 6,7 C 6,7 C 5,6 C 96 % 15 lf 1019,2 hPa 0,0 l/m 0 min 2 min 26 W/m 6,3 km/h (2 Bft) 97,87 %
13.12.2015 09:24 6,7 C 6,7 C 5,6 C 96 % 15 lf 1019,2 hPa 0,0 l/m 0 min 2 min 26 W/m 6,3 km/h (2 Bft) 95,74 %
13.12.2015 09:26 6,8 C 6,7 C 5,6 C 96 % 15 lf 1019,2 hPa 0,0 l/m 0 min 2 min 27 W/m 4,2 km/h (1 Bft) 95,74 %
13.12.2015 09:28 6,8 C 6,7 C 5,6 C 96 % 15 lf 1019,3 hPa 0,0 l/m 0 min 2 min 28 W/m 4,2 km/h (1 Bft) 100,00 %
13.12.2015 09:30 6,8 C 6,7 C 5,6 C 96 % 15 lf 1019,3 hPa 0,0 l/m 0 min 2 min 30 W/m 2,1 km/h (1 Bft) 100,00 %
13.12.2015 09:32 6,8 C 6,7 C 5,6 C 96 % 15 lf 1019,3 hPa 0,0 l/m 0 min 2 min 30 W/m 4,2 km/h (1 Bft) 97,87 %
13.12.2015 09:34 6,8 C 6,7 C 5,6 C 96 % 15 lf 1019,4 hPa 0,0 l/m 0 min 2 min 33 W/m 6,3 km/h (2 Bft) 95,74 %
13.12.2015 09:36 6,8 C 6,7 C 6,1 C 96 % 15 lf 1019,3 hPa 0,0 l/m 0 min 2 min 36 W/m 4,2 km/h (1 Bft) 95,74 %
13.12.2015 09:38 6,8 C 6,7 C 6,1 C 96 % 15 lf 1019,4 hPa 0,0 l/m 0 min 2 min 38 W/m 4,2 km/h (1 Bft) 100,00 %
13.12.2015 09:40 6,8 C 7,2 C 6,1 C 96 % 15 lf 1019,4 hPa 0,0 l/m 0 min 2 min 41 W/m 6,3 km/h (2 Bft) 97,83 %
13.12.2015 09:42 6,9 C 7,2 C 6,1 C 96 % 15 lf 1019,3 hPa 0,0 l/m 0 min 2 min 43 W/m 6,3 km/h (2 Bft) 100,00 %
13.12.2015 09:44 6,9 C 7,2 C 6,1 C 96 % 15 lf 1019,4 hPa 0,2 l/m 0 min 2 min 46 W/m 4,2 km/h (1 Bft) 100,00 %
13.12.2015 09:46 6,9 C 7,2 C 6,1 C 96 % 15 lf 1019,4 hPa 0,0 l/m 0 min 2 min 48 W/m 4,2 km/h (1 Bft) 100,00 %
13.12.2015 09:48 6,9 C 7,2 C 6,1 C 96 % 15 lf 1019,5 hPa 0,0 l/m 0 min 2 min 49 W/m 6,3 km/h (2 Bft) 93,62 %
13.12.2015 09:50 6,9 C 7,2 C 6,1 C 96 % 15 lf 1019,5 hPa 0,0 l/m 0 min 2 min 49 W/m 4,2 km/h (1 Bft) 95,74 %
13.12.2015 09:52 6,9 C 7,2 C 6,1 C 96 % 15 lf 1019,5 hPa 0,0 l/m 0 min 2 min 49 W/m 6,3 km/h (2 Bft) 95,65 %
13.12.2015 09:54 6,9 C 7,2 C 6,1 C 96 % 15 lf 1019,5 hPa 0,0 l/m 0 min 2 min 48 W/m 4,2 km/h (1 Bft) 100,00 %
13.12.2015 09:56 6,9 C 7,2 C 6,1 C 96 % 15 lf 1019,6 hPa 0,0 l/m 0 min 2 min 47 W/m 6,3 km/h (2 Bft) 100,00 %
13.12.2015 09:58 7,0 C 7,2 C 6,1 C 96 % 15 lf 1019,7 hPa 0,0 l/m 0 min 2 min 46 W/m 6,3 km/h (2 Bft) 97,87 %
13.12.2015 10:00 7,0 C 7,2 C 6,1 C 96 % 15 lf 1019,7 hPa 0,0 l/m 0 min 2 min 44 W/m 6,3 km/h (2 Bft) 100,00 %
13.12.2015 10:02 7,0 C 7,2 C 6,1 C 96 % 15 lf 1019,7 hPa 0,0 l/m 0 min 2 min 42 W/m 6,3 km/h (2 Bft) 97,87 %
13.12.2015 10:04 7,0 C 7,2 C 6,1 C 96 % 15 lf 1019,8 hPa 0,0 l/m 0 min 2 min 41 W/m 6,3 km/h (2 Bft) 95,65 %
13.12.2015 10:06 7,0 C 7,2 C 6,1 C 96 % 15 lf 1019,8 hPa 0,0 l/m 0 min 2 min 40 W/m 8,4 km/h (2 Bft) 97,87 %
13.12.2015 10:08 7,1 C 7,2 C 6,1 C 96 % 15 lf 1019,8 hPa 0,0 l/m 0 min 2 min 40 W/m 2,1 km/h (1 Bft) 97,87 %
13.12.2015 10:10 7,1 C 7,2 C 6,1 C 96 % 15 lf 1019,8 hPa 0,0 l/m 0 min 2 min 42 W/m 4,2 km/h (1 Bft) 95,74 %
13.12.2015 10:12 7,1 C 7,2 C 6,1 C 96 % 15 lf 1019,8 hPa 0,0 l/m 0 min 2 min 43 W/m 2,1 km/h (1 Bft) 97,87 %
13.12.2015 10:14 7,1 C 7,2 C 6,1 C 96 % 15 lf 1019,8 hPa 0,0 l/m 0 min 2 min 44 W/m 6,3 km/h (2 Bft) 95,74 %
13.12.2015 10:16 7,1 C 7,2 C 6,1 C 96 % 15 lf 1019,8 hPa 0,0 l/m 0 min 2 min 44 W/m 4,2 km/h (1 Bft) 93,48 %
13.12.2015 10:18 7,1 C 7,2 C 6,1 C 96 % 15 lf 1019,8 hPa 0,0 l/m 0 min 2 min 42 W/m 6,3 km/h (2 Bft) 95,74 %
13.12.2015 10:20 7,1 C 7,2 C 6,1 C 96 % 15 lf 1019,9 hPa 0,0 l/m 0 min 2 min 44 W/m 4,2 km/h (1 Bft) 93,62 %
13.12.2015 10:22 7,1 C 7,2 C 6,1 C 96 % 15 lf 1019,9 hPa 0,0 l/m 0 min 2 min 44 W/m 4,2 km/h (1 Bft) 89,36 %
13.12.2015 10:24 7,1 C 7,2 C 6,1 C 96 % 15 lf 1019,9 hPa 0,0 l/m 0 min 2 min 45 W/m 4,2 km/h (1 Bft) 93,62 %
13.12.2015 10:26 7,1 C 7,2 C 6,1 C 96 % 15 lf 1019,9 hPa 0,0 l/m 0 min 2 min 50 W/m 2,1 km/h (1 Bft) 91,30 %
13.12.2015 10:28 7,1 C 7,2 C 6,1 C 96 % 15 lf 1019,8 hPa 0,0 l/m 0 min 2 min 55 W/m 4,2 km/h (1 Bft) 93,62 %
13.12.2015 10:30 7,1 C 7,2 C 6,1 C 96 % 15 lf 1019,9 hPa 0,0 l/m 0 min 2 min 60 W/m 4,2 km/h (1 Bft) 93,62 %
13.12.2015 10:32 7,2 C 7,8 C 6,1 C 97 % 15 lf 1019,9 hPa 0,0 l/m 0 min 2 min 68 W/m 4,2 km/h (1 Bft) 91,49 %
13.12.2015 10:34 7,2 C 7,8 C 6,1 C 97 % 15 lf 1019,9 hPa 0,2 l/m 0 min 2 min 76 W/m 4,2 km/h (1 Bft) 93,62 %
13.12.2015 10:36 7,2 C 7,8 C 6,7 C 97 % 15 lf 1020,0 hPa 0,0 l/m 0 min 2 min 91 W/m 8,4 km/h (2 Bft) 91,49 %
13.12.2015 10:38 7,2 C 8,3 C 6,7 C 97 % 15 lf 1020,1 hPa 0,0 l/m 0 min 2 min 108 W/m 6,3 km/h (2 Bft) 91,30 %
13.12.2015 10:40 7,2 C 8,3 C 6,7 C 97 % 15 lf 1020,1 hPa 0,0 l/m 0 min 0 min 114 W/m 6,3 km/h (2 Bft) 93,62 %
13.12.2015 10:42 7,3 C 8,3 C 6,7 C 97 % 15 lf 1020,1 hPa 0,0 l/m 0 min 0 min 110 W/m 10,5 km/h (2 Bft) 89,36 %
13.12.2015 10:44 7,3 C 8,3 C 6,7 C 97 % 15 lf 1020,1 hPa 0,0 l/m 0 min 0 min 106 W/m 6,3 km/h (2 Bft) 91,49 %
13.12.2015 10:46 7,3 C 8,3 C 6,7 C 97 % 15 lf 1020,2 hPa 0,0 l/m 0 min 2 min 109 W/m 8,4 km/h (2 Bft) 93,62 %
13.12.2015 10:48 7,3 C 8,3 C 6,7 C 97 % 15 lf 1020,2 hPa 0,0 l/m 0 min 0 min 106 W/m 8,4 km/h (2 Bft) 91,49 %
13.12.2015 10:50 7,3 C 8,3 C 6,7 C 97 % 15 lf 1020,2 hPa 0,0 l/m 0 min 0 min 89 W/m 4,2 km/h (1 Bft) 91,30 %
13.12.2015 10:52 7,3 C 8,3 C 6,7 C 97 % 15 lf 1020,2 hPa 0,0 l/m 0 min 0 min 71 W/m 8,4 km/h (2 Bft) 97,87 %
13.12.2015 10:54 7,3 C 8,3 C 6,7 C 97 % 15 lf 1020,2 hPa 0,0 l/m 0 min 0 min 61 W/m 8,4 km/h (2 Bft) 93,62 %
13.12.2015 10:56 7,3 C 8,3 C 6,7 C 97 % 15 lf 1020,2 hPa 0,0 l/m 0 min 0 min 61 W/m 8,4 km/h (2 Bft) 97,87 %
13.12.2015 10:58 7,4 C 8,3 C 6,7 C 97 % 15 lf 1020,2 hPa 0,0 l/m 0 min 0 min 68 W/m 10,5 km/h (2 Bft) 95,74 %
13.12.2015 11:00 7,4 C 8,3 C 6,7 C 97 % 15 lf 1020,2 hPa 0,0 l/m 0 min 0 min 74 W/m 6,3 km/h (2 Bft) 97,87 %
13.12.2015 11:02 7,4 C 8,3 C 6,7 C 97 % 15 lf 1020,3 hPa 0,0 l/m 0 min 0 min 77 W/m 8,4 km/h (2 Bft) 93,48 %
13.12.2015 11:04 7,4 C 7,8 C 6,1 C 97 % 15 lf 1020,3 hPa 0,0 l/m 0 min 2 min 82 W/m 10,5 km/h (2 Bft) 95,74 %
13.12.2015 11:06 7,4 C 7,8 C 6,1 C 97 % 15 lf 1020,3 hPa 0,0 l/m 0 min 0 min 86 W/m 6,3 km/h (2 Bft) 97,87 %
13.12.2015 11:08 7,4 C 7,8 C 6,1 C 97 % 15 lf 1020,3 hPa 0,0 l/m 0 min 0 min 88 W/m 6,3 km/h (2 Bft) 95,74 %
13.12.2015 11:10 7,4 C 7,8 C 6,7 C 97 % 15 lf 1020,3 hPa 0,0 l/m 0 min 2 min 88 W/m 8,4 km/h (2 Bft) 97,87 %
13.12.2015 11:12 7,4 C 7,8 C 6,1 C 97 % 15 lf 1020,3 hPa 0,0 l/m 0 min 2 min 88 W/m 6,3 km/h (2 Bft) 95,74 %
13.12.2015 11:14 7,4 C 7,8 C 6,7 C 97 % 15 lf 1020,3 hPa 0,0 l/m 0 min 2 min 86 W/m 8,4 km/h (2 Bft) 97,83 %
13.12.2015 11:16 7,4 C 7,8 C 6,7 C 97 % 15 lf 1020,3 hPa 0,0 l/m 0 min 2 min 86 W/m 6,3 km/h (2 Bft) 97,87 %
13.12.2015 11:18 7,3 C 7,8 C 6,1 C 97 % 15 lf 1020,3 hPa 0,0 l/m 0 min 0 min 85 W/m 8,4 km/h (2 Bft) 95,74 %
13.12.2015 11:20 7,3 C 8,3 C 6,1 C 97 % 15 lf 1020,3 hPa 0,0 l/m 0 min 2 min 80 W/m 8,4 km/h (2 Bft) 97,87 %
13.12.2015 11:22 7,4 C 7,8 C 6,1 C 97 % 15 lf 1020,3 hPa 0,0 l/m 0 min 0 min 76 W/m 6,3 km/h (2 Bft) 100,00 %
13.12.2015 11:24 7,4 C 7,8 C 6,1 C 97 % 15 lf 1020,3 hPa 0,0 l/m 0 min 2 min 71 W/m 8,4 km/h (2 Bft) 100,00 %
13.12.2015 11:26 7,3 C 7,8 C 6,1 C 97 % 15 lf 1020,3 hPa 0,0 l/m 0 min 0 min 69 W/m 8,4 km/h (2 Bft) 97,87 %
13.12.2015 11:28 7,4 C 7,8 C 6,1 C 97 % 15 lf 1020,2 hPa 0,0 l/m 0 min 0 min 70 W/m 6,3 km/h (2 Bft) 100,00 %
13.12.2015 11:30 7,3 C 7,8 C 6,1 C 97 % 15 lf 1020,3 hPa 0,0 l/m 0 min 0 min 75 W/m 8,4 km/h (2 Bft) 97,87 %
13.12.2015 11:32 7,3 C 7,8 C 6,1 C 97 % 15 lf 1020,3 hPa 0,0 l/m 0 min 0 min 77 W/m 6,3 km/h (2 Bft) 95,74 %
13.12.2015 11:34 7,3 C 7,8 C 6,7 C 97 % 15 lf 1020,3 hPa 0,0 l/m 0 min 0 min 77 W/m 6,3 km/h (2 Bft) 100,00 %
13.12.2015 11:36 7,3 C 7,8 C 6,7 C 97 % 15 lf 1020,3 hPa 0,0 l/m 0 min 0 min 75 W/m 4,2 km/h (1 Bft) 97,83 %
13.12.2015 11:38 7,4 C 7,8 C 6,7 C 97 % 15 lf 1020,3 hPa 0,0 l/m 0 min 2 min 74 W/m 8,4 km/h (2 Bft) 100,00 %
13.12.2015 11:40 7,4 C 7,8 C 6,7 C 97 % 15 lf 1020,4 hPa 0,0 l/m 0 min 2 min 72 W/m 8,4 km/h (2 Bft) 97,87 %
13.12.2015 11:42 7,4 C 8,3 C 6,7 C 97 % 15 lf 1020,4 hPa 0,0 l/m 0 min 2 min 71 W/m 4,2 km/h (1 Bft) 95,74 %
13.12.2015 11:44 7,4 C 7,8 C 6,7 C 97 % 15 lf 1020,6 hPa 0,0 l/m 0 min 2 min 69 W/m 6,3 km/h (2 Bft) 100,00 %
13.12.2015 11:46 7,4 C 8,3 C 6,7 C 97 % 15 lf 1020,5 hPa 0,0 l/m 0 min 2 min 69 W/m 8,4 km/h (2 Bft) 97,87 %
13.12.2015 11:48 7,4 C 8,3 C 6,7 C 97 % 15 lf 1020,5 hPa 0,0 l/m 0 min 2 min 71 W/m 8,4 km/h (2 Bft) 95,65 %
13.12.2015 11:50 7,5 C 7,8 C 6,7 C 97 % 15 lf 1020,5 hPa 0,0 l/m 0 min 2 min 74 W/m 10,5 km/h (2 Bft) 100,00 %
13.12.2015 11:52 7,5 C 7,8 C 6,7 C 97 % 15 lf 1020,4 hPa 0,0 l/m 0 min 2 min 77 W/m 6,3 km/h (2 Bft) 95,74 %
13.12.2015 11:54 7,5 C 8,3 C 6,7 C 97 % 15 lf 1020,5 hPa 0,0 l/m 0 min 2 min 80 W/m 4,2 km/h (1 Bft) 95,74 %
13.12.2015 11:56 7,5 C 8,3 C 6,7 C 97 % 15 lf 1020,5 hPa 0,0 l/m 0 min 2 min 82 W/m 6,3 km/h (2 Bft) 97,87 %
13.12.2015 11:58 7,6 C 8,3 C 6,7 C 97 % 15 lf 1020,5 hPa 0,0 l/m 0 min 0 min 86 W/m 4,2 km/h (1 Bft) 97,87 %
13.12.2015 12:00 7,6 C 8,3 C 6,7 C 97 % 15 lf 1020,4 hPa 0,0 l/m 0 min 0 min 87 W/m 8,4 km/h (2 Bft) 97,83 %
13.12.2015 12:02 7,6 C 7,8 C 6,1 C 97 % 15 lf 1020,4 hPa 0,0 l/m 0 min 2 min 86 W/m 6,3 km/h (2 Bft) 95,74 %
13.12.2015 12:06 7,5 C 7,8 C 6,7 C 97 % 15 lf 1020,5 hPa 0,0 l/m 0 min 2 min 81 W/m 6,3 km/h (2 Bft) 94,68 %
13.12.2015 12:08 7,6 C 8,3 C 6,7 C 97 % 15 lf 1020,4 hPa 0,0 l/m 0 min 2 min 76 W/m 6,3 km/h (2 Bft) 93,62 %
13.12.2015 12:10 7,6 C 7,8 C 6,7 C 97 % 15 lf 1020,4 hPa 0,0 l/m 0 min 2 min 73 W/m 8,4 km/h (2 Bft) 95,74 %
13.12.2015 12:12 7,5 C 7,8 C 6,1 C 97 % 15 lf 1020,5 hPa 0,0 l/m 0 min 2 min 68 W/m 6,3 km/h (2 Bft) 93,48 %
13.12.2015 12:14 7,6 C 7,8 C 6,7 C 97 % 15 lf 1020,6 hPa 0,0 l/m 0 min 2 min 64 W/m 4,2 km/h (1 Bft) 93,62 %
13.12.2015 12:16 7,6 C 8,3 C 6,7 C 97 % 15 lf 1020,6 hPa 0,0 l/m 0 min 2 min 61 W/m 4,2 km/h (1 Bft) 95,74 %
13.12.2015 12:18 7,6 C 8,3 C 6,7 C 97 % 15 lf 1020,6 hPa 0,0 l/m 0 min 2 min 61 W/m 4,2 km/h (1 Bft) 95,74 %
13.12.2015 12:20 7,6 C 7,8 C 6,7 C 97 % 14 lf 1020,6 hPa 0,0 l/m 0 min 0 min 62 W/m 4,2 km/h (1 Bft) 89,36 %
13.12.2015 12:22 7,6 C 8,3 C 6,7 C 97 % 15 lf 1020,6 hPa 0,0 l/m 0 min 0 min 60 W/m 6,3 km/h (2 Bft) 95,74 %
13.12.2015 12:24 7,6 C 7,8 C 6,7 C 97 % 15 lf 1020,6 hPa 0,0 l/m 0 min 2 min 61 W/m 4,2 km/h (1 Bft) 95,65 %
13.12.2015 12:26 7,6 C 7,8 C 6,7 C 97 % 15 lf 1020,6 hPa 0,0 l/m 0 min 2 min 62 W/m 2,1 km/h (1 Bft) 95,74 %
13.12.2015 12:28 7,6 C 7,8 C 6,7 C 97 % 15 lf 1020,6 hPa 0,0 l/m 0 min 2 min 62 W/m 4,2 km/h (1 Bft) 93,62 %
13.12.2015 12:30 7,6 C 8,3 C 6,7 C 97 % 15 lf 1020,6 hPa 0,0 l/m 0 min 2 min 62 W/m 4,2 km/h (1 Bft) 95,74 %
13.12.2015 12:32 7,6 C 7,8 C 6,7 C 97 % 15 lf 1020,6 hPa 0,0 l/m 0 min 2 min 57 W/m 4,2 km/h (1 Bft) 91,49 %
13.12.2015 12:34 7,6 C 7,8 C 6,7 C 97 % 15 lf 1020,6 hPa 0,0 l/m 0 min 2 min 54 W/m 4,2 km/h (1 Bft) 93,48 %
13.12.2015 12:36 7,6 C 7,8 C 6,7 C 97 % 15 lf 1020,6 hPa 0,0 l/m 0 min 2 min 56 W/m 4,2 km/h (1 Bft) 89,36 %
13.12.2015 12:38 7,6 C 7,8 C 6,7 C 97 % 15 lf 1020,6 hPa 0,0 l/m 0 min 2 min 56 W/m 2,1 km/h (1 Bft) 95,74 %
13.12.2015 12:40 7,6 C 7,8 C 6,7 C 97 % 15 lf 1020,6 hPa 0,0 l/m 0 min 2 min 54 W/m 4,2 km/h (1 Bft) 97,87 %
13.12.2015 12:42 7,6 C 7,8 C 6,1 C 97 % 15 lf 1020,6 hPa 0,0 l/m 0 min 2 min 51 W/m 6,3 km/h (2 Bft) 97,87 %
13.12.2015 12:44 7,6 C 7,8 C 6,1 C 97 % 15 lf 1020,6 hPa 0,0 l/m 0 min 2 min 50 W/m 6,3 km/h (2 Bft) 95,74 %
13.12.2015 12:46 7,6 C 7,8 C 6,1 C 97 % 15 lf 1020,6 hPa 0,0 l/m 0 min 2 min 53 W/m 6,3 km/h (2 Bft) 93,48 %
13.12.2015 12:48 7,6 C 7,8 C 6,1 C 97 % 15 lf 1020,6 hPa 0,2 l/m 0 min 2 min 58 W/m 4,2 km/h (1 Bft) 95,74 %
13.12.2015 12:50 7,6 C 7,8 C 6,1 C 97 % 15 lf 1020,6 hPa 0,0 l/m 0 min 2 min 61 W/m 4,2 km/h (1 Bft) 93,62 %
13.12.2015 12:52 7,6 C 7,8 C 6,7 C 97 % 15 lf 1020,6 hPa 0,0 l/m 0 min 2 min 62 W/m 4,2 km/h (1 Bft) 91,49 %
13.12.2015 12:54 7,6 C 7,8 C 6,7 C 97 % 15 lf 1020,6 hPa 0,0 l/m 0 min 2 min 64 W/m 4,2 km/h (1 Bft) 93,62 %
13.12.2015 12:56 7,6 C 7,8 C 6,7 C 97 % 15 lf 1020,6 hPa 0,0 l/m 0 min 2 min 68 W/m 2,1 km/h (1 Bft) 93,62 %
13.12.2015 12:58 7,6 C 7,8 C 6,7 C 97 % 15 lf 1020,6 hPa 0,0 l/m 0 min 2 min 70 W/m 2,1 km/h (1 Bft) 95,65 %
13.12.2015 13:00 7,6 C 7,8 C 6,7 C 97 % 15 lf 1020,6 hPa 0,0 l/m 0 min 2 min 74 W/m 6,3 km/h (2 Bft) 95,74 %
13.12.2015 13:02 7,6 C 7,8 C 6,7 C 97 % 15 lf 1020,6 hPa 0,0 l/m 0 min 2 min 78 W/m 6,3 km/h (2 Bft) 95,74 %
13.12.2015 13:04 7,6 C 7,8 C 6,7 C 97 % 15 lf 1020,6 hPa 0,0 l/m 0 min 2 min 84 W/m 4,2 km/h (1 Bft) 93,62 %
13.12.2015 13:06 7,6 C 8,3 C 6,7 C 97 % 15 lf 1020,7 hPa 0,0 l/m 0 min 0 min 89 W/m 4,2 km/h (1 Bft) 97,87 %
13.12.2015 13:08 7,6 C 8,3 C 6,7 C 97 % 15 lf 1020,7 hPa 0,0 l/m 0 min 0 min 91 W/m 4,2 km/h (1 Bft) 89,36 %
13.12.2015 13:10 7,6 C 8,3 C 6,7 C 97 % 15 lf 1020,7 hPa 0,0 l/m 0 min 0 min 93 W/m 6,3 km/h (2 Bft) 97,83 %
13.12.2015 13:12 7,6 C 8,3 C 6,7 C 97 % 15 lf 1020,7 hPa 0,0 l/m 0 min 2 min 96 W/m 6,3 km/h (2 Bft) 97,87 %
13.12.2015 13:14 7,6 C 8,3 C 6,7 C 97 % 15 lf 1020,7 hPa 0,0 l/m 0 min 2 min 96 W/m 6,3 km/h (2 Bft) 95,74 %
13.12.2015 13:16 7,6 C 8,3 C 6,7 C 97 % 15 lf 1020,7 hPa 0,0 l/m 0 min 0 min 94 W/m 6,3 km/h (2 Bft) 95,74 %
13.12.2015 13:18 7,6 C 8,3 C 6,7 C 97 % 15 lf 1020,7 hPa 0,0 l/m 0 min 2 min 93 W/m 4,2 km/h (1 Bft) 95,74 %
13.12.2015 13:20 7,6 C 8,3 C 6,7 C 97 % 15 lf 1020,7 hPa 0,0 l/m 0 min 2 min 91 W/m 4,2 km/h (1 Bft) 93,62 %
13.12.2015 13:22 7,6 C 8,3 C 6,7 C 97 % 15 lf 1020,7 hPa 0,0 l/m 0 min 0 min 94 W/m 6,3 km/h (2 Bft) 94,29 %
13.12.2015 13:24 7,6 C 8,3 C 6,7 C 97 % 15 lf 1020,7 hPa 0,0 l/m 0 min 0 min 99 W/m 4,2 km/h (1 Bft) 95,74 %
13.12.2015 13:26 7,6 C 8,3 C 6,7 C 97 % 15 lf 1020,6 hPa 0,0 l/m 0 min 0 min 104 W/m 6,3 km/h (2 Bft) 95,65 %
13.12.2015 13:28 7,6 C 8,3 C 6,7 C 97 % 15 lf 1020,7 hPa 0,0 l/m 0 min 0 min 111 W/m 6,3 km/h (2 Bft) 91,49 %
13.12.2015 13:30 7,6 C 8,3 C 6,7 C 97 % 15 lf 1020,7 hPa 0,0 l/m 0 min 2 min 121 W/m 8,4 km/h (2 Bft) 93,62 %
13.12.2015 13:32 7,6 C 8,3 C 6,7 C 97 % 15 lf 1020,7 hPa 0,0 l/m 0 min 2 min 132 W/m 6,3 km/h (2 Bft) 95,74 %
13.12.2015 13:34 7,6 C 8,3 C 6,7 C 97 % 15 lf 1020,7 hPa 0,0 l/m 0 min 2 min 134 W/m 8,4 km/h (2 Bft) 95,74 %
13.12.2015 13:36 7,6 C 8,3 C 6,7 C 97 % 15 lf 1020,7 hPa 0,0 l/m 0 min 2 min 130 W/m 8,4 km/h (2 Bft) 95,74 %
13.12.2015 13:38 7,6 C 8,3 C 6,7 C 97 % 15 lf 1020,8 hPa 0,0 l/m 0 min 2 min 127 W/m 6,3 km/h (2 Bft) 97,83 %
13.12.2015 13:40 7,7 C 8,9 C 6,7 C 97 % 15 lf 1020,7 hPa 0,0 l/m 0 min 0 min 132 W/m 6,3 km/h (2 Bft) 97,87 %
13.12.2015 13:42 7,7 C 8,9 C 6,7 C 97 % 15 lf 1020,8 hPa 0,0 l/m 2 min 0 min 150 W/m 6,3 km/h (2 Bft) 95,74 %
13.12.2015 13:44 7,7 C 8,9 C 7,2 C 97 % 15 lf 1020,8 hPa 0,0 l/m 2 min 0 min 165 W/m 6,3 km/h (2 Bft) 97,92 %
13.12.2015 13:46 7,7 C 8,9 C 7,2 C 97 % 15 lf 1020,7 hPa 0,0 l/m 2 min 2 min 162 W/m 6,3 km/h (2 Bft) 93,62 %
13.12.2015 13:48 7,7 C 9,4 C 7,2 C 97 % 15 lf 1020,8 hPa 0,0 l/m 2 min 2 min 151 W/m 8,4 km/h (2 Bft) 95,74 %
13.12.2015 13:50 7,8 C 9,4 C 7,2 C 97 % 15 lf 1020,7 hPa 0,0 l/m 2 min 0 min 143 W/m 8,4 km/h (2 Bft) 91,49 %
13.12.2015 13:52 7,8 C 8,9 C 7,2 C 97 % 15 lf 1020,7 hPa 0,0 l/m 2 min 0 min 130 W/m 6,3 km/h (2 Bft) 97,83 %
13.12.2015 13:54 7,8 C 9,4 C 7,2 C 97 % 15 lf 1020,7 hPa 0,0 l/m 0 min 0 min 115 W/m 6,3 km/h (2 Bft) 95,74 %
13.12.2015 13:56 7,9 C 8,9 C 6,7 C 97 % 15 lf 1020,7 hPa 0,0 l/m 0 min 0 min 115 W/m 4,2 km/h (1 Bft) 95,74 %
13.12.2015 13:58 7,9 C 8,9 C 6,7 C 97 % 14 lf 1020,7 hPa 0,0 l/m 0 min 0 min 113 W/m 6,3 km/h (2 Bft) 93,62 %
13.12.2015 14:00 7,9 C 8,9 C 6,7 C 97 % 14 lf 1020,7 hPa 0,0 l/m 0 min 0 min 105 W/m 6,3 km/h (2 Bft) 95,74 %
13.12.2015 14:02 7,9 C 8,9 C 7,2 C 97 % 14 lf 1020,7 hPa 0,0 l/m 0 min 0 min 90 W/m 10,5 km/h (2 Bft) 91,49 %
13.12.2015 14:04 7,9 C 8,9 C 6,7 C 97 % 14 lf 1020,7 hPa 0,0 l/m 0 min 0 min 79 W/m 8,4 km/h (2 Bft) 93,48 %
13.12.2015 14:06 7,9 C 8,3 C 6,7 C 97 % 14 lf 1020,7 hPa 0,0 l/m 0 min 0 min 73 W/m 8,4 km/h (2 Bft) 95,74 %
13.12.2015 14:08 7,9 C 8,3 C 6,7 C 97 % 13 lf 1020,7 hPa 0,0 l/m 0 min 0 min 66 W/m 8,4 km/h (2 Bft) 95,74 %
13.12.2015 14:10 7,8 C 7,8 C 6,1 C 97 % 14 lf 1020,7 hPa 0,0 l/m 0 min 0 min 59 W/m 6,3 km/h (2 Bft) 95,74 %
13.12.2015 14:12 7,8 C 7,8 C 6,1 C 97 % 14 lf 1020,7 hPa 0,0 l/m 0 min 0 min 53 W/m 4,2 km/h (1 Bft) 97,87 %
13.12.2015 14:14 7,8 C 7,8 C 6,1 C 97 % 13 lf 1020,7 hPa 0,0 l/m 0 min 0 min 51 W/m 6,3 km/h (2 Bft) 95,65 %
13.12.2015 14:16 7,8 C 7,8 C 6,1 C 97 % 14 lf 1020,7 hPa 0,0 l/m 0 min 0 min 49 W/m 6,3 km/h (2 Bft) 95,74 %
13.12.2015 14:18 7,8 C 7,8 C 6,1 C 97 % 13 lf 1020,8 hPa 0,0 l/m 0 min 0 min 48 W/m 6,3 km/h (2 Bft) 95,74 %
13.12.2015 14:20 7,8 C 7,8 C 6,1 C 97 % 14 lf 1020,8 hPa 0,0 l/m 0 min 0 min 49 W/m 6,3 km/h (2 Bft) 97,87 %
13.12.2015 14:22 7,7 C 7,8 C 6,1 C 97 % 13 lf 1020,8 hPa 0,0 l/m 0 min 2 min 49 W/m 6,3 km/h (2 Bft) 93,62 %
13.12.2015 14:24 7,7 C 7,8 C 6,1 C 97 % 14 lf 1020,7 hPa 0,0 l/m 0 min 2 min 49 W/m 6,3 km/h (2 Bft) 97,87 %
13.12.2015 14:26 7,7 C 7,8 C 6,1 C 97 % 14 lf 1020,8 hPa 0,0 l/m 0 min 2 min 49 W/m 6,3 km/h (2 Bft) 95,65 %
13.12.2015 14:28 7,7 C 7,8 C 6,7 C 97 % 13 lf 1020,8 hPa 0,0 l/m 0 min 0 min 50 W/m 6,3 km/h (2 Bft) 97,87 %
13.12.2015 14:30 7,7 C 7,8 C 6,7 C 97 % 14 lf 1020,8 hPa 0,0 l/m 0 min 0 min 50 W/m 6,3 km/h (2 Bft) 97,87 %
13.12.2015 14:32 7,7 C 7,8 C 6,7 C 97 % 13 lf 1020,8 hPa 0,0 l/m 0 min 0 min 48 W/m 6,3 km/h (2 Bft) 93,62 %
13.12.2015 14:34 7,7 C 7,8 C 6,7 C 97 % 13 lf 1020,8 hPa 0,0 l/m 0 min 0 min 46 W/m 8,4 km/h (2 Bft) 91,49 %
13.12.2015 14:36 7,7 C 7,8 C 6,7 C 97 % 13 lf 1020,8 hPa 0,0 l/m 0 min 0 min 43 W/m 8,4 km/h (2 Bft) 96,15 %
13.12.2015 14:38 7,7 C 7,8 C 6,7 C 97 % 14 lf 1020,8 hPa 0,0 l/m 0 min 0 min 42 W/m 6,3 km/h (2 Bft) 100,00 %
13.12.2015 14:40 7,7 C 7,8 C 6,7 C 97 % 13 lf 1020,8 hPa 0,0 l/m 0 min 0 min 40 W/m 4,2 km/h (1 Bft) 100,00 %
13.12.2015 14:42 7,7 C 7,8 C 6,7 C 96 % 13 lf 1020,8 hPa 0,0 l/m 0 min 0 min 40 W/m 4,2 km/h (1 Bft) 100,00 %
13.12.2015 14:44 7,7 C 7,8 C 6,7 C 96 % 14 lf 1020,8 hPa 0,0 l/m 0 min 0 min 41 W/m 4,2 km/h (1 Bft) 100,00 %
13.12.2015 14:46 7,7 C 7,8 C 6,7 C 96 % 13 lf 1020,8 hPa 0,0 l/m 0 min 0 min 47 W/m 4,2 km/h (1 Bft) 100,00 %
13.12.2015 14:48 7,7 C 7,8 C 6,7 C 96 % 13 lf 1020,8 hPa 0,0 l/m 0 min 0 min 50 W/m 4,2 km/h (1 Bft) 97,83 %
13.12.2015 14:50 7,7 C 7,8 C 6,7 C 96 % 13 lf 1020,8 hPa 0,0 l/m 0 min 0 min 48 W/m 2,1 km/h (1 Bft) 100,00 %
13.12.2015 14:52 7,7 C 7,8 C 6,7 C 96 % 13 lf 1020,8 hPa 0,0 l/m 0 min 0 min 46 W/m 4,2 km/h (1 Bft) 100,00 %
13.12.2015 14:54 7,7 C 7,8 C 6,7 C 96 % 14 lf 1020,8 hPa 0,0 l/m 0 min 0 min 44 W/m 4,2 km/h (1 Bft) 100,00 %
13.12.2015 14:56 7,7 C 7,8 C 6,7 C 96 % 13 lf 1020,8 hPa 0,0 l/m 0 min 0 min 41 W/m 4,2 km/h (1 Bft) 97,87 %
13.12.2015 14:58 7,7 C 7,8 C 6,7 C 96 % 13 lf 1020,7 hPa 0,0 l/m 0 min 0 min 39 W/m 6,3 km/h (2 Bft) 93,62 %
13.12.2015 15:00 7,7 C 7,8 C 6,1 C 96 % 13 lf 1020,8 hPa 0,0 l/m 0 min 0 min 35 W/m 10,5 km/h (2 Bft) 100,00 %
13.12.2015 15:02 7,7 C 7,8 C 6,1 C 96 % 13 lf 1020,8 hPa 0,0 l/m 0 min 0 min 35 W/m 6,3 km/h (2 Bft) 97,87 %
13.12.2015 15:04 7,7 C 7,8 C 6,7 C 96 % 13 lf 1020,8 hPa 0,0 l/m 0 min 0 min 34 W/m 6,3 km/h (2 Bft) 97,87 %
13.12.2015 15:06 7,7 C 7,2 C 6,1 C 96 % 13 lf 1020,9 hPa 0,0 l/m 0 min 0 min 33 W/m 10,5 km/h (2 Bft) 97,87 %
13.12.2015 15:08 7,7 C 7,2 C 6,1 C 96 % 13 lf 1020,9 hPa 0,0 l/m 0 min 0 min 30 W/m 10,5 km/h (2 Bft) 100,00 %
13.12.2015 15:10 7,7 C 7,2 C 6,1 C 96 % 13 lf 1020,9 hPa 0,0 l/m 0 min 0 min 30 W/m 12,6 km/h (3 Bft) 97,83 %
13.12.2015 15:12 7,6 C 7,2 C 6,1 C 96 % 12 lf 1020,9 hPa 0,0 l/m 0 min 0 min 28 W/m 10,5 km/h (2 Bft) 97,87 %
13.12.2015 15:14 7,6 C 7,2 C 6,1 C 96 % 12 lf 1020,9 hPa 0,0 l/m 0 min 0 min 27 W/m 4,2 km/h (1 Bft) 93,62 %
13.12.2015 15:16 7,6 C 7,2 C 6,1 C 96 % 13 lf 1020,9 hPa 0,0 l/m 0 min 0 min 26 W/m 6,3 km/h (2 Bft) 100,00 %
13.12.2015 15:18 7,6 C 7,2 C 6,1 C 96 % 13 lf 1020,9 hPa 0,0 l/m 0 min 0 min 25 W/m 6,3 km/h (2 Bft) 97,87 %
13.12.2015 15:20 7,6 C 7,2 C 6,1 C 96 % 13 lf 1020,9 hPa 0,0 l/m 0 min 0 min 25 W/m 6,3 km/h (2 Bft) 100,00 %
13.12.2015 15:22 7,6 C 7,2 C 6,1 C 96 % 12 lf 1020,9 hPa 0,0 l/m 0 min 0 min 24 W/m 6,3 km/h (2 Bft) 95,65 %
13.12.2015 15:24 7,5 C 7,2 C 6,1 C 96 % 12 lf 1020,9 hPa 0,0 l/m 0 min 0 min 23 W/m 6,3 km/h (2 Bft) 100,00 %
13.12.2015 15:26 7,5 C 7,2 C 6,1 C 96 % 13 lf 1020,9 hPa 0,0 l/m 0 min 0 min 21 W/m 6,3 km/h (2 Bft) 95,74 %
13.12.2015 15:28 7,5 C 7,2 C 6,1 C 96 % 12 lf 1020,9 hPa 0,0 l/m 0 min 0 min 19 W/m 8,4 km/h (2 Bft) 95,74 %
13.12.2015 15:30 7,5 C 7,2 C 6,1 C 96 % 12 lf 1020,9 hPa 0,0 l/m 0 min 0 min 19 W/m 8,4 km/h (2 Bft) 95,74 %
13.12.2015 15:32 7,5 C 7,2 C 6,1 C 96 % 12 lf 1020,9 hPa 0,0 l/m 0 min 0 min 19 W/m 10,5 km/h (2 Bft) 93,62 %
13.12.2015 15:34 7,5 C 7,2 C 6,1 C 96 % 12 lf 1020,9 hPa 0,0 l/m 0 min 0 min 19 W/m 12,6 km/h (3 Bft) 95,65 %
13.12.2015 15:36 7,4 C 7,2 C 6,1 C 96 % 12 lf 1020,9 hPa 0,0 l/m 0 min 0 min 19 W/m 6,3 km/h (2 Bft) 97,87 %
13.12.2015 15:38 7,4 C 7,2 C 6,1 C 96 % 12 lf 1020,9 hPa 0,0 l/m 0 min 0 min 18 W/m 10,5 km/h (2 Bft) 97,87 %
13.12.2015 15:40 7,4 C 7,2 C 6,1 C 96 % 12 lf 1020,9 hPa 0,0 l/m 0 min 0 min 18 W/m 10,5 km/h (2 Bft) 95,74 %
13.12.2015 15:42 7,4 C 7,2 C 6,1 C 96 % 12 lf 1020,9 hPa 0,0 l/m 0 min 0 min 17 W/m 10,5 km/h (2 Bft) 95,74 %
13.12.2015 15:44 7,4 C 7,2 C 6,1 C 96 % 12 lf 1021,0 hPa 0,0 l/m 0 min 0 min 16 W/m 6,3 km/h (2 Bft) 97,87 %
13.12.2015 15:46 7,4 C 7,2 C 6,1 C 96 % 12 lf 1021,0 hPa 0,0 l/m 0 min 0 min 14 W/m 6,3 km/h (2 Bft) 93,48 %
13.12.2015 15:48 7,4 C 7,2 C 6,1 C 96 % 12 lf 1021,0 hPa 0,0 l/m 0 min 0 min 14 W/m 6,3 km/h (2 Bft) 97,87 %
13.12.2015 15:50 7,4 C 7,2 C 6,1 C 96 % 12 lf 1021,0 hPa 0,0 l/m 0 min 0 min 12 W/m 8,4 km/h (2 Bft) 95,74 %
13.12.2015 15:52 7,4 C 7,2 C 6,1 C 96 % 12 lf 1021,0 hPa 0,0 l/m 0 min 0 min 12 W/m 6,3 km/h (2 Bft) 97,87 %
13.12.2015 15:54 7,4 C 7,2 C 6,1 C 96 % 11 lf 1021,0 hPa 0,0 l/m 0 min 0 min 12 W/m 6,3 km/h (2 Bft) 95,74 %
13.12.2015 15:56 7,4 C 7,2 C 6,1 C 96 % 12 lf 1021,0 hPa 0,0 l/m 0 min 0 min 12 W/m 6,3 km/h (2 Bft) 89,36 %
13.12.2015 15:58 7,4 C 7,2 C 6,1 C 96 % 12 lf 1021,0 hPa 0,0 l/m 0 min 2 min 11 W/m 10,5 km/h (2 Bft) 89,13 %
13.12.2015 16:00 7,3 C 7,2 C 6,1 C 96 % 12 lf 1021,0 hPa 0,0 l/m 0 min 2 min 10 W/m 6,3 km/h (2 Bft) 93,62 %
13.12.2015 16:02 7,3 C 7,2 C 6,1 C 96 % 13 lf 1021,0 hPa 0,0 l/m 0 min 2 min 9 W/m 4,2 km/h (1 Bft) 91,49 %
13.12.2015 16:04 7,3 C 7,2 C 6,1 C 96 % 12 lf 1021,0 hPa 0,0 l/m 0 min 2 min 7 W/m 6,3 km/h (2 Bft) 91,49 %
13.12.2015 16:06 7,3 C 7,2 C 5,6 C 96 % 12 lf 1021,1 hPa 0,0 l/m 0 min 0 min 7 W/m 6,3 km/h (2 Bft) 88,57 %
13.12.2015 16:08 7,3 C 7,2 C 5,6 C 96 % 12 lf 1021,1 hPa 0,0 l/m 0 min 0 min 7 W/m 6,3 km/h (2 Bft) 95,08 %
13.12.2015 16:10 7,3 C 7,2 C 5,6 C 96 % 13 lf 1021,1 hPa 0,0 l/m 0 min 0 min 5 W/m 4,2 km/h (1 Bft) 95,74 %
13.12.2015 16:12 7,3 C 7,2 C 5,6 C 96 % 12 lf 1021,1 hPa 0,0 l/m 0 min 0 min 5 W/m 2,1 km/h (1 Bft) 93,62 %
13.12.2015 16:14 7,3 C 6,7 C 5,6 C 96 % 13 lf 1021,1 hPa 0,0 l/m 0 min 0 min 5 W/m 10,5 km/h (2 Bft) 95,74 %
13.12.2015 16:16 7,3 C 6,7 C 5,6 C 96 % 13 lf 1021,1 hPa 0,0 l/m 0 min 0 min 5 W/m 6,3 km/h (2 Bft) 93,62 %
13.12.2015 16:18 7,3 C 6,7 C 5,6 C 96 % 13 lf 1021,1 hPa 0,0 l/m 0 min 0 min 5 W/m 6,3 km/h (2 Bft) 95,74 %
13.12.2015 16:20 7,3 C 6,7 C 5,6 C 96 % 12 lf 1021,1 hPa 0,0 l/m 0 min 0 min 0 W/m 6,3 km/h (2 Bft) 93,48 %
13.12.2015 16:22 7,2 C 6,7 C 5,6 C 96 % 12 lf 1021,1 hPa 0,0 l/m 0 min 0 min 0 W/m 4,2 km/h (1 Bft) 93,62 %
13.12.2015 16:24 7,2 C 6,7 C 5,6 C 96 % 13 lf 1021,1 hPa 0,0 l/m 0 min 0 min 0 W/m 6,3 km/h (2 Bft) 95,74 %
13.12.2015 16:26 7,2 C 6,7 C 5,6 C 96 % 13 lf 1021,1 hPa 0,0 l/m 0 min 0 min 0 W/m 6,3 km/h (2 Bft) 97,87 %
13.12.2015 16:28 7,2 C 6,7 C 5,6 C 96 % 13 lf 1021,1 hPa 0,0 l/m 0 min 0 min 0 W/m 4,2 km/h (1 Bft) 95,74 %
13.12.2015 16:30 7,2 C 6,7 C 5,6 C 96 % 13 lf 1021,0 hPa 0,0 l/m 0 min 0 min 0 W/m 6,3 km/h (2 Bft) 93,62 %
13.12.2015 16:32 7,2 C 6,7 C 5,6 C 96 % 13 lf 1021,0 hPa 0,0 l/m 0 min 0 min 0 W/m 12,6 km/h (3 Bft) 93,62 %
13.12.2015 16:34 7,2 C 6,7 C 5,6 C 96 % 13 lf 1021,1 hPa 0,0 l/m 0 min 0 min 0 W/m 10,5 km/h (2 Bft) 97,87 %
13.12.2015 16:36 7,2 C 6,7 C 5,6 C 96 % 13 lf 1021,1 hPa 0,0 l/m 0 min 0 min 0 W/m 4,2 km/h (1 Bft) 89,36 %
13.12.2015 16:38 7,2 C 6,7 C 5,6 C 96 % 12 lf 1021,1 hPa 0,0 l/m 0 min 0 min 0 W/m 4,2 km/h (1 Bft) 87,23 %
13.12.2015 16:40 7,1 C 6,7 C 5,6 C 96 % 13 lf 1021,1 hPa 0,0 l/m 0 min 0 min 0 W/m 6,3 km/h (2 Bft) 93,62 %
13.12.2015 16:42 7,1 C 6,7 C 5,6 C 96 % 13 lf 1021,2 hPa 0,0 l/m 0 min 0 min 0 W/m 6,3 km/h (2 Bft) 93,62 %
13.12.2015 16:44 7,1 C 6,7 C 5,6 C 96 % 13 lf 1021,2 hPa 0,0 l/m 0 min 0 min 0 W/m 6,3 km/h (2 Bft) 97,87 %
13.12.2015 16:46 7,1 C 6,7 C 5,6 C 96 % 13 lf 1021,2 hPa 0,0 l/m 0 min 0 min 0 W/m 6,3 km/h (2 Bft) 95,74 %
13.12.2015 16:48 7,1 C 6,7 C 5,6 C 96 % 13 lf 1021,1 hPa 0,0 l/m 0 min 0 min 0 W/m 4,2 km/h (1 Bft) 95,74 %
13.12.2015 16:50 7,1 C 6,7 C 5,6 C 96 % 13 lf 1021,2 hPa 0,0 l/m 0 min 2 min 0 W/m 8,4 km/h (2 Bft) 93,62 %
13.12.2015 16:52 7,1 C 6,7 C 5,6 C 96 % 13 lf 1021,1 hPa 0,0 l/m 0 min 0 min 0 W/m 8,4 km/h (2 Bft) 93,62 %
13.12.2015 16:54 7,1 C 6,7 C 5,6 C 96 % 13 lf 1021,2 hPa 0,0 l/m 0 min 0 min 0 W/m 10,5 km/h (2 Bft) 91,30 %
13.12.2015 16:56 7,0 C 6,7 C 5,6 C 96 % 13 lf 1021,2 hPa 0,0 l/m 0 min 0 min 0 W/m 6,3 km/h (2 Bft) 95,74 %
13.12.2015 16:58 7,0 C 6,7 C 5,6 C 96 % 13 lf 1021,2 hPa 0,0 l/m 0 min 0 min 0 W/m 6,3 km/h (2 Bft) 89,36 %
13.12.2015 17:00 7,0 C 6,7 C 5,6 C 96 % 13 lf 1021,2 hPa 0,0 l/m 0 min 0 min 0 W/m 6,3 km/h (2 Bft) 95,74 %
13.12.2015 17:02 6,9 C 6,7 C 5,6 C 96 % 13 lf 1021,3 hPa 0,0 l/m 0 min 0 min 0 W/m 4,2 km/h (1 Bft) 94,44 %
13.12.2015 17:04 6,9 C 6,7 C 5,6 C 96 % 13 lf 1021,3 hPa 0,0 l/m 0 min 0 min 0 W/m 8,4 km/h (2 Bft) 93,62 %
13.12.2015 17:06 6,9 C 6,7 C 5,6 C 96 % 14 lf 1021,3 hPa 0,0 l/m 0 min 2 min 0 W/m 6,3 km/h (2 Bft) 95,74 %
13.12.2015 17:08 6,9 C 6,7 C 5,6 C 96 % 14 lf 1021,2 hPa 0,0 l/m 0 min 0 min 0 W/m 8,4 km/h (2 Bft) 95,74 %
13.12.2015 17:10 6,9 C 6,7 C 5,6 C 96 % 14 lf 1021,2 hPa 0,0 l/m 0 min 0 min 0 W/m 8,4 km/h (2 Bft) 97,83 %
13.12.2015 17:12 6,9 C 6,7 C 5,6 C 96 % 14 lf 1021,2 hPa 0,0 l/m 0 min 0 min 0 W/m 6,3 km/h (2 Bft) 97,87 %
13.12.2015 17:14 6,9 C 6,7 C 5,6 C 96 % 14 lf 1021,3 hPa 0,0 l/m 0 min 0 min 0 W/m 2,1 km/h (1 Bft) 93,62 %
13.12.2015 17:16 6,9 C 6,7 C 5,6 C 96 % 14 lf 1021,2 hPa 0,0 l/m 0 min 0 min 0 W/m 6,3 km/h (2 Bft) 95,83 %
13.12.2015 17:18 6,9 C 6,7 C 5,6 C 96 % 14 lf 1021,2 hPa 0,0 l/m 0 min 0 min 0 W/m 4,2 km/h (1 Bft) 100,00 %
13.12.2015 17:20 6,9 C 6,7 C 5,6 C 96 % 14 lf 1021,3 hPa 0,0 l/m 0 min 0 min 0 W/m 2,1 km/h (1 Bft) 95,74 %
13.12.2015 17:22 6,9 C 6,7 C 5,6 C 96 % 14 lf 1021,3 hPa 0,0 l/m 0 min 0 min 0 W/m 2,1 km/h (1 Bft) 100,00 %
13.12.2015 17:24 6,8 C 6,7 C 5,6 C 96 % 14 lf 1021,3 hPa 0,0 l/m 0 min 0 min 0 W/m 4,2 km/h (1 Bft) 100,00 %
13.12.2015 17:26 6,9 C 6,7 C 5,6 C 96 % 14 lf 1021,3 hPa 0,0 l/m 0 min 0 min 0 W/m 6,3 km/h (2 Bft) 97,87 %
13.12.2015 17:28 6,8 C 6,7 C 5,6 C 96 % 15 lf 1021,2 hPa 0,0 l/m 0 min 0 min 0 W/m 10,5 km/h (2 Bft) 100,00 %
13.12.2015 17:30 6,8 C 6,7 C 5,6 C 96 % 14 lf 1021,3 hPa 0,0 l/m 0 min 0 min 0 W/m 6,3 km/h (2 Bft) 95,74 %
13.12.2015 17:32 6,8 C 6,7 C 5,6 C 96 % 15 lf 1021,3 hPa 0,0 l/m 0 min 0 min 0 W/m 4,2 km/h (1 Bft) 97,83 %
13.12.2015 17:34 6,8 C 6,7 C 5,6 C 96 % 15 lf 1021,3 hPa 0,0 l/m 0 min 0 min 0 W/m 6,3 km/h (2 Bft) 97,87 %
13.12.2015 17:36 6,8 C 6,7 C 5,6 C 96 % 15 lf 1021,3 hPa 0,0 l/m 0 min 0 min 0 W/m 8,4 km/h (2 Bft) 93,62 %
13.12.2015 17:38 6,8 C 6,7 C 5,6 C 96 % 15 lf 1021,3 hPa 0,0 l/m 0 min 0 min 0 W/m 6,3 km/h (2 Bft) 95,74 %
13.12.2015 17:40 6,8 C 6,7 C 5,6 C 96 % 14 lf 1021,3 hPa 0,0 l/m 0 min 0 min 0 W/m 6,3 km/h (2 Bft) 100,00 %
13.12.2015 17:42 6,8 C 6,7 C 5,6 C 96 % 15 lf 1021,3 hPa 0,0 l/m 0 min 0 min 0 W/m 4,2 km/h (1 Bft) 97,87 %
13.12.2015 17:44 6,8 C 6,7 C 5,6 C 96 % 15 lf 1021,4 hPa 0,0 l/m 0 min 0 min 0 W/m 6,3 km/h (2 Bft) 97,83 %
13.12.2015 17:46 6,8 C 6,7 C 5,6 C 96 % 15 lf 1021,4 hPa 0,0 l/m 0 min 0 min 0 W/m 6,3 km/h (2 Bft) 97,87 %
13.12.2015 17:48 6,8 C 6,7 C 5,6 C 96 % 15 lf 1021,4 hPa 0,0 l/m 0 min 0 min 0 W/m 6,3 km/h (2 Bft) 93,62 %
13.12.2015 17:50 6,8 C 6,7 C 5,6 C 96 % 14 lf 1021,4 hPa 0,0 l/m 0 min 0 min 0 W/m 4,2 km/h (1 Bft) 95,74 %
13.12.2015 17:52 6,8 C 6,7 C 5,6 C 96 % 15 lf 1021,4 hPa 0,0 l/m 0 min 0 min 0 W/m 6,3 km/h (2 Bft) 97,87 %
13.12.2015 17:54 6,8 C 6,7 C 5,6 C 96 % 15 lf 1021,4 hPa 0,0 l/m 0 min 0 min 0 W/m 6,3 km/h (2 Bft) 97,87 %
13.12.2015 17:56 6,8 C 6,7 C 5,6 C 96 % 15 lf 1021,5 hPa 0,0 l/m 0 min 0 min 0 W/m 6,3 km/h (2 Bft) 97,83 %
13.12.2015 17:58 6,7 C 6,7 C 5,6 C 96 % 15 lf 1021,4 hPa 0,0 l/m 0 min 0 min 0 W/m 6,3 km/h (2 Bft) 95,74 %
13.12.2015 18:00 6,7 C 6,7 C 5,6 C 96 % 15 lf 1021,4 hPa 0,0 l/m 0 min 0 min 0 W/m 6,3 km/h (2 Bft) 95,74 %
13.12.2015 18:02 6,7 C 6,7 C 5,6 C 96 % 15 lf 1021,4 hPa 0,0 l/m 0 min 0 min 0 W/m 4,2 km/h (1 Bft) 95,74 %
13.12.2015 18:06 6,7 C 6,7 C 5,6 C 96 % 15 lf 1021,4 hPa 0,0 l/m 0 min 0 min 0 W/m 8,4 km/h (2 Bft) 94,68 %
13.12.2015 18:08 6,7 C 6,7 C 5,6 C 96 % 15 lf 1021,4 hPa 0,0 l/m 0 min 0 min 0 W/m 10,5 km/h (2 Bft) 97,83 %
13.12.2015 18:10 6,7 C 6,7 C 5,6 C 96 % 15 lf 1021,4 hPa 0,0 l/m 0 min 0 min 0 W/m 10,5 km/h (2 Bft) 95,74 %
13.12.2015 18:12 6,7 C 6,7 C 5,6 C 96 % 15 lf 1021,4 hPa 0,0 l/m 0 min 0 min 0 W/m 14,6 km/h (3 Bft) 93,62 %
13.12.2015 18:14 6,7 C 6,7 C 5,6 C 96 % 15 lf 1021,4 hPa 0,0 l/m 0 min 0 min 0 W/m 12,6 km/h (3 Bft) 95,74 %
13.12.2015 18:16 6,7 C 6,7 C 5,6 C 96 % 15 lf 1021,5 hPa 0,0 l/m 0 min 0 min 0 W/m 8,4 km/h (2 Bft) 95,74 %
13.12.2015 18:18 6,7 C 6,7 C 5,6 C 96 % 15 lf 1021,5 hPa 0,0 l/m 0 min 0 min 0 W/m 8,4 km/h (2 Bft) 97,92 %
13.12.2015 18:20 6,7 C 6,7 C 5,6 C 96 % 15 lf 1021,4 hPa 0,2 l/m 0 min 0 min 0 W/m 8,4 km/h (2 Bft) 95,74 %
13.12.2015 18:22 6,7 C 6,7 C 5,6 C 96 % 15 lf 1021,4 hPa 0,0 l/m 0 min 0 min 0 W/m 8,4 km/h (2 Bft) 97,87 %
13.12.2015 18:24 6,7 C 6,7 C 5,6 C 96 % 15 lf 1021,4 hPa 0,0 l/m 0 min 0 min 0 W/m 6,3 km/h (2 Bft) 97,87 %
13.12.2015 18:26 6,7 C 6,7 C 5,6 C 96 % 15 lf 1021,5 hPa 0,0 l/m 0 min 0 min 0 W/m 8,4 km/h (2 Bft) 97,87 %
13.12.2015 18:28 6,7 C 6,7 C 5,6 C 96 % 15 lf 1021,5 hPa 0,0 l/m 0 min 0 min 0 W/m 10,5 km/h (2 Bft) 97,83 %
13.12.2015 18:30 6,7 C 6,7 C 5,6 C 96 % 15 lf 1021,5 hPa 0,0 l/m 0 min 2 min 0 W/m 6,3 km/h (2 Bft) 95,74 %
13.12.2015 18:32 6,7 C 6,7 C 5,6 C 96 % 15 lf 1021,5 hPa 0,0 l/m 0 min 0 min 0 W/m 8,4 km/h (2 Bft) 97,87 %
13.12.2015 18:34 6,7 C 6,7 C 5,6 C 96 % 15 lf 1021,5 hPa 0,0 l/m 0 min 0 min 0 W/m 8,4 km/h (2 Bft) 95,74 %
13.12.2015 18:36 6,7 C 6,7 C 5,6 C 96 % 15 lf 1021,5 hPa 0,0 l/m 0 min 0 min 0 W/m 10,5 km/h (2 Bft) 95,74 %
13.12.2015 18:38 6,7 C 6,7 C 5,6 C 96 % 15 lf 1021,5 hPa 0,0 l/m 0 min 0 min 0 W/m 10,5 km/h (2 Bft) 97,87 %
13.12.2015 18:40 6,7 C 6,7 C 5,6 C 96 % 15 lf 1021,5 hPa 0,0 l/m 0 min 2 min 0 W/m 8,4 km/h (2 Bft) 97,83 %
13.12.2015 18:42 6,7 C 6,7 C 5,6 C 96 % 15 lf 1021,5 hPa 0,0 l/m 0 min 2 min 0 W/m 16,7 km/h (3 Bft) 95,74 %
13.12.2015 18:44 6,7 C 6,7 C 5,6 C 96 % 15 lf 1021,5 hPa 0,0 l/m 0 min 0 min 0 W/m 14,6 km/h (3 Bft) 95,74 %
13.12.2015 18:46 6,7 C 6,7 C 5,6 C 96 % 15 lf 1021,6 hPa 0,0 l/m 0 min 0 min 0 W/m 12,6 km/h (3 Bft) 95,74 %
13.12.2015 18:48 6,7 C 6,7 C 5,6 C 96 % 15 lf 1021,6 hPa 0,0 l/m 0 min 0 min 0 W/m 8,4 km/h (2 Bft) 95,74 %
13.12.2015 18:50 6,7 C 6,7 C 5,6 C 96 % 15 lf 1021,6 hPa 0,0 l/m 0 min 0 min 0 W/m 10,5 km/h (2 Bft) 95,74 %
13.12.2015 18:52 6,7 C 6,7 C 5,6 C 96 % 15 lf 1021,5 hPa 0,0 l/m 0 min 0 min 0 W/m 8,4 km/h (2 Bft) 100,00 %
13.12.2015 18:54 6,7 C 6,7 C 5,6 C 96 % 15 lf 1021,6 hPa 0,0 l/m 0 min 0 min 0 W/m 16,7 km/h (3 Bft) 100,00 %
13.12.2015 18:56 6,7 C 6,7 C 5,6 C 96 % 15 lf 1021,6 hPa 0,0 l/m 0 min 0 min 0 W/m 12,6 km/h (3 Bft) 100,00 %
13.12.2015 18:58 6,7 C 6,7 C 5,6 C 96 % 15 lf 1021,6 hPa 0,0 l/m 0 min 0 min 0 W/m 12,6 km/h (3 Bft) 100,00 %
13.12.2015 19:00 6,7 C 6,7 C 5,6 C 96 % 15 lf 1021,6 hPa 0,0 l/m 0 min 0 min 0 W/m 10,5 km/h (2 Bft) 100,00 %
13.12.2015 19:02 6,7 C 6,7 C 5,6 C 96 % 15 lf 1021,6 hPa 0,0 l/m 0 min 0 min 0 W/m 8,4 km/h (2 Bft) 95,74 %
13.12.2015 19:04 6,7 C 6,7 C 5,6 C 97 % 15 lf 1021,6 hPa 0,0 l/m 0 min 0 min 0 W/m 8,4 km/h (2 Bft) 97,83 %
13.12.2015 19:06 6,7 C 6,7 C 5,6 C 97 % 15 lf 1021,7 hPa 0,0 l/m 0 min 0 min 0 W/m 12,6 km/h (3 Bft) 100,00 %
13.12.2015 19:08 6,7 C 6,7 C 5,6 C 97 % 15 lf 1021,6 hPa 0,0 l/m 0 min 0 min 0 W/m 10,5 km/h (2 Bft) 100,00 %
13.12.2015 19:10 6,7 C 6,7 C 5,6 C 97 % 15 lf 1021,6 hPa 0,0 l/m 0 min 0 min 0 W/m 12,6 km/h (3 Bft) 100,00 %
13.12.2015 19:12 6,7 C 6,7 C 5,6 C 97 % 15 lf 1021,6 hPa 0,0 l/m 0 min 0 min 0 W/m 10,5 km/h (2 Bft) 97,87 %
13.12.2015 19:14 6,7 C 6,7 C 5,6 C 97 % 15 lf 1021,6 hPa 0,0 l/m 0 min 0 min 0 W/m 16,7 km/h (3 Bft) 97,87 %
13.12.2015 19:16 6,6 C 6,7 C 5,6 C 97 % 15 lf 1021,6 hPa 0,0 l/m 0 min 0 min 0 W/m 10,5 km/h (2 Bft) 100,00 %
13.12.2015 19:18 6,6 C 6,7 C 5,6 C 97 % 15 lf 1021,6 hPa 0,0 l/m 0 min 0 min 0 W/m 10,5 km/h (2 Bft) 97,87 %
13.12.2015 19:20 6,6 C 6,7 C 5,6 C 97 % 15 lf 1021,6 hPa 0,0 l/m 0 min 0 min 0 W/m 10,5 km/h (2 Bft) 95,74 %
13.12.2015 19:22 6,6 C 6,7 C 5,6 C 97 % 15 lf 1021,6 hPa 0,0 l/m 0 min 0 min 0 W/m 8,4 km/h (2 Bft) 97,87 %
13.12.2015 19:24 6,6 C 6,7 C 5,6 C 97 % 15 lf 1021,6 hPa 0,0 l/m 0 min 0 min 0 W/m 8,4 km/h (2 Bft) 95,74 %
13.12.2015 19:26 6,6 C 6,7 C 5,6 C 97 % 15 lf 1021,6 hPa 0,0 l/m 0 min 0 min 0 W/m 10,5 km/h (2 Bft) 93,48 %
13.12.2015 19:28 6,6 C 6,7 C 5,6 C 97 % 15 lf 1021,5 hPa 0,0 l/m 0 min 0 min 0 W/m 8,4 km/h (2 Bft) 97,87 %
13.12.2015 19:30 6,6 C 6,7 C 5,6 C 97 % 15 lf 1021,6 hPa 0,0 l/m 0 min 2 min 0 W/m 10,5 km/h (2 Bft) 95,74 %
13.12.2015 19:32 6,6 C 6,7 C 5,6 C 97 % 15 lf 1021,6 hPa 0,0 l/m 0 min 2 min 0 W/m 6,3 km/h (2 Bft) 93,62 %
13.12.2015 19:34 6,6 C 6,7 C 5,6 C 97 % 15 lf 1021,6 hPa 0,0 l/m 0 min 2 min 0 W/m 6,3 km/h (2 Bft) 95,74 %
13.12.2015 19:36 6,6 C 6,7 C 5,6 C 97 % 15 lf 1021,6 hPa 0,0 l/m 0 min 2 min 0 W/m 8,4 km/h (2 Bft) 95,74 %
13.12.2015 19:38 6,6 C 6,7 C 5,6 C 97 % 15 lf 1021,6 hPa 0,0 l/m 0 min 2 min 0 W/m 6,3 km/h (2 Bft) 95,65 %
13.12.2015 19:40 6,6 C 6,7 C 5,6 C 97 % 15 lf 1021,6 hPa 0,0 l/m 0 min 2 min 0 W/m 8,4 km/h (2 Bft) 95,74 %
13.12.2015 19:42 6,6 C 6,7 C 5,6 C 97 % 15 lf 1021,6 hPa 0,0 l/m 0 min 2 min 0 W/m 6,3 km/h (2 Bft) 97,87 %
13.12.2015 19:44 6,6 C 6,7 C 5,6 C 97 % 15 lf 1021,6 hPa 0,0 l/m 0 min 2 min 0 W/m 6,3 km/h (2 Bft) 93,62 %
13.12.2015 19:46 6,6 C 6,7 C 5,6 C 97 % 15 lf 1021,6 hPa 0,0 l/m 0 min 2 min 0 W/m 10,5 km/h (2 Bft) 97,87 %
13.12.2015 19:47 6,6 C 6,7 C 5,6 C 97 % 15 lf 1021,6 hPa 0,0 l/m 0 min 1 min 0 W/m 10,5 km/h (2 Bft) 100,00 %
13.12.2015 19:48 6,6 C 6,7 C 5,6 C 97 % 15 lf 1021,6 hPa 0,0 l/m 0 min 1 min 0 W/m 8,4 km/h (2 Bft) 95,65 %
13.12.2015 19:49 6,6 C 6,7 C 5,6 C 97 % 15 lf 1021,6 hPa 0,0 l/m 0 min 1 min 0 W/m 8,4 km/h (2 Bft) 95,65 %
13.12.2015 19:50 6,6 C 6,7 C 5,6 C 97 % 15 lf 1021,5 hPa 0,0 l/m 0 min 1 min 0 W/m 8,4 km/h (2 Bft) 100,00 %
13.12.2015 19:51 6,6 C 6,7 C 5,6 C 97 % 15 lf 1021,6 hPa 0,0 l/m 0 min 1 min 0 W/m 8,4 km/h (2 Bft) 95,65 %
13.12.2015 19:52 6,6 C 6,7 C 5,6 C 97 % 15 lf 1021,6 hPa 0,0 l/m 0 min 1 min 0 W/m 8,4 km/h (2 Bft) 100,00 %
13.12.2015 19:53 6,6 C 6,7 C 5,6 C 97 % 15 lf 1021,5 hPa 0,0 l/m 0 min 1 min 0 W/m 8,4 km/h (2 Bft) 95,65 %
13.12.2015 19:54 6,6 C 6,7 C 5,6 C 97 % 15 lf 1021,5 hPa 0,0 l/m 0 min 1 min 0 W/m 8,4 km/h (2 Bft) 95,65 %
13.12.2015 19:55 6,6 C 6,7 C 5,6 C 97 % 15 lf 1021,5 hPa 0,0 l/m 0 min 1 min 0 W/m 10,5 km/h (2 Bft) 95,65 %
13.12.2015 19:56 6,6 C 6,7 C 5,6 C 97 % 15 lf 1021,5 hPa 0,0 l/m 0 min 1 min 0 W/m 8,4 km/h (2 Bft) 100,00 %
13.12.2015 19:57 6,6 C 6,7 C 5,6 C 97 % 15 lf 1021,5 hPa 0,0 l/m 0 min 1 min 0 W/m 8,4 km/h (2 Bft) 95,65 %
13.12.2015 19:58 6,6 C 6,7 C 5,6 C 97 % 15 lf 1021,5 hPa 0,0 l/m 0 min 1 min 0 W/m 8,4 km/h (2 Bft) 95,65 %
13.12.2015 19:59 6,6 C 6,7 C 5,6 C 97 % 15 lf 1021,5 hPa 0,0 l/m 0 min 1 min 0 W/m 6,3 km/h (2 Bft) 100,00 %
13.12.2015 20:00 6,6 C 6,7 C 5,6 C 97 % 15 lf 1021,5 hPa 0,0 l/m 0 min 1 min 0 W/m 8,4 km/h (2 Bft) 100,00 %
13.12.2015 20:01 6,6 C 6,7 C 5,6 C 97 % 15 lf 1021,5 hPa 0,0 l/m 0 min 1 min 0 W/m 8,4 km/h (2 Bft) 95,65 %
13.12.2015 20:02 6,6 C 6,7 C 5,6 C 97 % 15 lf 1021,6 hPa 0,0 l/m 0 min 0 min 0 W/m 10,5 km/h (2 Bft) 100,00 %
13.12.2015 20:04 6,6 C 6,7 C 5,6 C 97 % 15 lf 1021,6 hPa 0,2 l/m 0 min 2 min 0 W/m 4,2 km/h (1 Bft) 95,89 %
13.12.2015 20:06 6,6 C 6,7 C 5,6 C 97 % 15 lf 1021,6 hPa 0,0 l/m 0 min 0 min 0 W/m 10,5 km/h (2 Bft) 96,61 %
13.12.2015 20:08 6,6 C 6,7 C 5,6 C 97 % 15 lf 1021,6 hPa 0,0 l/m 0 min 0 min 0 W/m 10,5 km/h (2 Bft) 95,74 %
13.12.2015 20:10 6,6 C 6,7 C 5,6 C 97 % 15 lf 1021,6 hPa 0,0 l/m 0 min 0 min 0 W/m 8,4 km/h (2 Bft) 95,74 %
13.12.2015 20:12 6,6 C 6,7 C 5,6 C 97 % 15 lf 1021,6 hPa 0,0 l/m 0 min 0 min 0 W/m 8,4 km/h (2 Bft) 97,87 %
13.12.2015 20:14 6,6 C 6,7 C 5,6 C 97 % 15 lf 1021,7 hPa 0,0 l/m 0 min 0 min 0 W/m 6,3 km/h (2 Bft) 95,74 %
13.12.2015 20:16 6,6 C 6,7 C 5,6 C 97 % 15 lf 1021,6 hPa 0,0 l/m 0 min 0 min 0 W/m 8,4 km/h (2 Bft) 93,62 %
13.12.2015 20:18 6,6 C 6,7 C 5,6 C 97 % 15 lf 1021,6 hPa 0,0 l/m 0 min 0 min 0 W/m 6,3 km/h (2 Bft) 97,83 %
13.12.2015 20:20 6,6 C 6,7 C 5,6 C 97 % 15 lf 1021,6 hPa 0,0 l/m 0 min 0 min 0 W/m 8,4 km/h (2 Bft) 93,62 %
13.12.2015 20:22 6,6 C 6,7 C 5,6 C 97 % 15 lf 1021,6 hPa 0,0 l/m 0 min 0 min 0 W/m 4,2 km/h (1 Bft) 97,87 %
13.12.2015 20:24 6,6 C 6,7 C 5,6 C 97 % 15 lf 1021,5 hPa 0,0 l/m 0 min 0 min 0 W/m 10,5 km/h (2 Bft) 91,49 %
13.12.2015 20:26 6,6 C 6,7 C 5,6 C 97 % 15 lf 1021,6 hPa 0,0 l/m 0 min 0 min 0 W/m 8,4 km/h (2 Bft) 94,00 %
13.12.2015 20:28 6,6 C 6,7 C 5,6 C 97 % 15 lf 1021,5 hPa 0,0 l/m 0 min 2 min 0 W/m 10,5 km/h (2 Bft) 97,83 %
13.12.2015 20:30 6,6 C 6,7 C 5,6 C 97 % 15 lf 1021,5 hPa 0,0 l/m 0 min 0 min 0 W/m 10,5 km/h (2 Bft) 97,87 %
13.12.2015 20:32 6,6 C 6,7 C 5,6 C 97 % 15 lf 1021,6 hPa 0,0 l/m 0 min 0 min 0 W/m 10,5 km/h (2 Bft) 97,87 %
13.12.2015 20:34 6,6 C 6,7 C 5,6 C 97 % 15 lf 1021,6 hPa 0,0 l/m 0 min 0 min 0 W/m 8,4 km/h (2 Bft) 93,62 %
13.12.2015 20:36 6,6 C 6,7 C 5,6 C 97 % 15 lf 1021,6 hPa 0,0 l/m 0 min 0 min 0 W/m 12,6 km/h (3 Bft) 95,74 %
13.12.2015 20:38 6,6 C 6,7 C 5,6 C 97 % 15 lf 1021,5 hPa 0,0 l/m 0 min 0 min 0 W/m 8,4 km/h (2 Bft) 95,74 %
13.12.2015 20:40 6,6 C 6,7 C 5,6 C 97 % 15 lf 1021,5 hPa 0,0 l/m 0 min 0 min 0 W/m 8,4 km/h (2 Bft) 97,83 %
13.12.2015 20:42 6,6 C 6,7 C 5,6 C 97 % 15 lf 1021,5 hPa 0,0 l/m 0 min 0 min 0 W/m 6,3 km/h (2 Bft) 91,49 %
13.12.2015 20:44 6,6 C 6,7 C 5,6 C 97 % 15 lf 1021,5 hPa 0,0 l/m 0 min 0 min 0 W/m 6,3 km/h (2 Bft) 93,62 %
13.12.2015 20:46 6,6 C 6,7 C 5,6 C 97 % 15 lf 1021,5 hPa 0,0 l/m 0 min 0 min 0 W/m 8,4 km/h (2 Bft) 91,49 %
13.12.2015 20:48 6,7 C 6,7 C 5,6 C 97 % 15 lf 1021,5 hPa 0,0 l/m 0 min 0 min 0 W/m 8,4 km/h (2 Bft) 95,74 %
13.12.2015 20:50 6,6 C 6,7 C 5,6 C 97 % 15 lf 1021,5 hPa 0,0 l/m 0 min 0 min 0 W/m 4,2 km/h (1 Bft) 91,49 %
13.12.2015 20:52 6,7 C 6,7 C 5,6 C 97 % 15 lf 1021,5 hPa 0,0 l/m 0 min 0 min 0 W/m 8,4 km/h (2 Bft) 91,30 %
13.12.2015 20:54 6,7 C 6,7 C 5,6 C 97 % 15 lf 1021,5 hPa 0,0 l/m 0 min 0 min 0 W/m 6,3 km/h (2 Bft) 93,62 %
13.12.2015 20:56 6,7 C 6,7 C 5,6 C 97 % 15 lf 1021,5 hPa 0,0 l/m 0 min 0 min 0 W/m 10,5 km/h (2 Bft) 93,62 %
13.12.2015 20:58 6,7 C 6,7 C 5,6 C 97 % 15 lf 1021,6 hPa 0,0 l/m 0 min 0 min 0 W/m 10,5 km/h (2 Bft) 93,62 %
13.12.2015 21:00 6,7 C 6,7 C 5,6 C 97 % 15 lf 1021,6 hPa 0,0 l/m 0 min 0 min 0 W/m 8,4 km/h (2 Bft) 95,74 %
13.12.2015 21:02 6,7 C 6,7 C 5,6 C 97 % 15 lf 1021,5 hPa 0,0 l/m 0 min 0 min 0 W/m 8,4 km/h (2 Bft) 95,74 %
13.12.2015 21:04 6,7 C 6,7 C 5,6 C 97 % 15 lf 1021,5 hPa 0,0 l/m 0 min 0 min 0 W/m 8,4 km/h (2 Bft) 95,65 %
13.12.2015 21:06 6,7 C 6,7 C 5,6 C 97 % 15 lf 1021,5 hPa 0,0 l/m 0 min 0 min 0 W/m 6,3 km/h (2 Bft) 93,62 %
13.12.2015 21:08 6,7 C 6,7 C 5,6 C 97 % 15 lf 1021,5 hPa 0,0 l/m 0 min 0 min 0 W/m 6,3 km/h (2 Bft) 95,74 %
13.12.2015 21:10 6,7 C 6,7 C 5,6 C 97 % 15 lf 1021,6 hPa 0,0 l/m 0 min 0 min 0 W/m 6,3 km/h (2 Bft) 85,11 %
13.12.2015 21:12 6,7 C 6,7 C 5,6 C 97 % 15 lf 1021,6 hPa 0,0 l/m 0 min 0 min 0 W/m 6,3 km/h (2 Bft) 93,62 %
13.12.2015 21:14 6,7 C 6,7 C 5,6 C 97 % 15 lf 1021,6 hPa 0,0 l/m 0 min 0 min 0 W/m 4,2 km/h (1 Bft) 93,62 %
13.12.2015 21:16 6,7 C 6,7 C 5,6 C 97 % 15 lf 1021,6 hPa 0,0 l/m 0 min 0 min 0 W/m 6,3 km/h (2 Bft) 93,48 %
13.12.2015 21:18 6,7 C 6,7 C 5,6 C 97 % 15 lf 1021,5 hPa 0,0 l/m 0 min 0 min 0 W/m 4,2 km/h (1 Bft) 95,74 %
13.12.2015 21:20 6,7 C 6,7 C 5,6 C 98 % 15 lf 1021,5 hPa 0,0 l/m 0 min 0 min 0 W/m 8,4 km/h (2 Bft) 95,74 %
13.12.2015 21:22 6,7 C 6,7 C 5,6 C 98 % 15 lf 1021,5 hPa 0,0 l/m 0 min 0 min 0 W/m 6,3 km/h (2 Bft) 91,49 %
13.12.2015 21:24 6,7 C 6,7 C 5,6 C 98 % 15 lf 1021,5 hPa 0,0 l/m 0 min 0 min 0 W/m 6,3 km/h (2 Bft) 93,62 %
13.12.2015 21:26 6,7 C 6,7 C 5,6 C 98 % 15 lf 1021,5 hPa 0,0 l/m 0 min 0 min 0 W/m 4,2 km/h (1 Bft) 91,49 %
13.12.2015 21:28 6,7 C 6,7 C 5,6 C 98 % 15 lf 1021,4 hPa 0,0 l/m 0 min 0 min 0 W/m 6,3 km/h (2 Bft) 95,65 %
13.12.2015 21:30 6,7 C 6,7 C 5,6 C 98 % 15 lf 1021,5 hPa 0,0 l/m 0 min 0 min 0 W/m 6,3 km/h (2 Bft) 95,74 %
13.12.2015 21:32 6,7 C 6,7 C 5,6 C 98 % 15 lf 1021,5 hPa 0,0 l/m 0 min 0 min 0 W/m 6,3 km/h (2 Bft) 91,49 %
13.12.2015 21:34 6,7 C 6,7 C 5,6 C 98 % 15 lf 1021,4 hPa 0,0 l/m 0 min 0 min 0 W/m 6,3 km/h (2 Bft) 95,74 %
13.12.2015 21:36 6,7 C 6,7 C 5,6 C 98 % 15 lf 1021,4 hPa 0,0 l/m 0 min 0 min 0 W/m 4,2 km/h (1 Bft) 95,74 %
13.12.2015 21:38 6,7 C 6,7 C 5,6 C 98 % 15 lf 1021,4 hPa 0,0 l/m 0 min 0 min 0 W/m 4,2 km/h (1 Bft) 95,65 %
13.12.2015 21:40 6,7 C 6,7 C 5,6 C 98 % 15 lf 1021,4 hPa 0,0 l/m 0 min 0 min 0 W/m 6,3 km/h (2 Bft) 95,74 %
13.12.2015 21:42 6,7 C 6,7 C 5,6 C 98 % 15 lf 1021,3 hPa 0,0 l/m 0 min 0 min 0 W/m 8,4 km/h (2 Bft) 91,49 %
13.12.2015 21:44 6,7 C 6,7 C 5,6 C 98 % 15 lf 1021,4 hPa 0,0 l/m 0 min 0 min 0 W/m 6,3 km/h (2 Bft) 97,87 %
13.12.2015 21:46 6,7 C 6,7 C 5,6 C 98 % 15 lf 1021,4 hPa 0,0 l/m 0 min 0 min 0 W/m 6,3 km/h (2 Bft) 97,87 %
13.12.2015 21:48 6,7 C 6,7 C 5,6 C 98 % 15 lf 1021,4 hPa 0,0 l/m 0 min 0 min 0 W/m 12,6 km/h (3 Bft) 97,87 %
13.12.2015 21:50 6,7 C 6,7 C 5,6 C 98 % 15 lf 1021,4 hPa 0,0 l/m 0 min 0 min 0 W/m 12,6 km/h (3 Bft) 97,83 %
13.12.2015 21:52 6,7 C 6,7 C 5,6 C 98 % 15 lf 1021,4 hPa 0,0 l/m 0 min 0 min 0 W/m 6,3 km/h (2 Bft) 97,87 %
13.12.2015 21:54 6,7 C 6,7 C 5,6 C 98 % 15 lf 1021,4 hPa 0,0 l/m 0 min 0 min 0 W/m 6,3 km/h (2 Bft) 97,87 %
13.12.2015 21:56 6,7 C 6,7 C 5,6 C 98 % 15 lf 1021,5 hPa 0,0 l/m 0 min 0 min 0 W/m 4,2 km/h (1 Bft) 97,87 %
13.12.2015 21:58 6,7 C 6,7 C 5,6 C 98 % 15 lf 1021,4 hPa 0,0 l/m 0 min 0 min 0 W/m 4,2 km/h (1 Bft) 100,00 %
13.12.2015 22:00 6,8 C 6,7 C 5,6 C 98 % 15 lf 1021,4 hPa 0,0 l/m 0 min 0 min 0 W/m 8,4 km/h (2 Bft) 97,87 %
13.12.2015 22:02 6,8 C 6,7 C 5,6 C 98 % 15 lf 1021,5 hPa 0,0 l/m 0 min 0 min 0 W/m 6,3 km/h (2 Bft) 95,65 %
13.12.2015 22:04 6,8 C 6,7 C 5,6 C 98 % 15 lf 1021,5 hPa 0,0 l/m 0 min 0 min 0 W/m 6,3 km/h (2 Bft) 97,87 %
13.12.2015 22:06 6,8 C 6,7 C 5,6 C 98 % 15 lf 1021,6 hPa 0,0 l/m 0 min 0 min 0 W/m 6,3 km/h (2 Bft) 100,00 %
13.12.2015 22:08 6,8 C 6,7 C 5,6 C 98 % 15 lf 1021,6 hPa 0,0 l/m 0 min 0 min 0 W/m 6,3 km/h (2 Bft) 97,87 %
13.12.2015 22:10 6,8 C 6,7 C 5,6 C 98 % 15 lf 1021,6 hPa 0,0 l/m 0 min 0 min 0 W/m 6,3 km/h (2 Bft) 100,00 %
13.12.2015 22:12 6,8 C 6,7 C 5,6 C 98 % 15 lf 1021,6 hPa 0,0 l/m 0 min 0 min 0 W/m 6,3 km/h (2 Bft) 100,00 %
13.12.2015 22:14 6,8 C 6,7 C 5,6 C 98 % 15 lf 1021,5 hPa 0,0 l/m 0 min 0 min 0 W/m 6,3 km/h (2 Bft) 100,00 %
13.12.2015 22:16 6,8 C 6,7 C 5,6 C 98 % 15 lf 1021,5 hPa 0,0 l/m 0 min 0 min 0 W/m 4,2 km/h (1 Bft) 100,00 %
13.12.2015 22:18 6,8 C 6,7 C 5,6 C 98 % 15 lf 1021,5 hPa 0,0 l/m 0 min 0 min 0 W/m 6,3 km/h (2 Bft) 100,00 %
13.12.2015 22:20 6,8 C 6,7 C 5,6 C 98 % 15 lf 1021,4 hPa 0,0 l/m 0 min 0 min 0 W/m 8,4 km/h (2 Bft) 95,74 %
13.12.2015 22:22 6,8 C 6,7 C 5,6 C 98 % 15 lf 1021,4 hPa 0,0 l/m 0 min 0 min 0 W/m 8,4 km/h (2 Bft) 100,00 %
13.12.2015 22:24 6,8 C 6,7 C 5,6 C 98 % 15 lf 1021,4 hPa 0,0 l/m 0 min 0 min 0 W/m 10,5 km/h (2 Bft) 100,00 %
13.12.2015 22:26 6,8 C 6,7 C 5,6 C 98 % 15 lf 1021,4 hPa 0,0 l/m 0 min 0 min 0 W/m 8,4 km/h (2 Bft) 97,83 %
13.12.2015 22:28 6,8 C 6,7 C 5,6 C 98 % 15 lf 1021,3 hPa 0,0 l/m 0 min 0 min 0 W/m 6,3 km/h (2 Bft) 97,87 %
13.12.2015 22:30 6,8 C 6,7 C 5,6 C 98 % 15 lf 1021,4 hPa 0,0 l/m 0 min 0 min 0 W/m 6,3 km/h (2 Bft) 95,74 %
13.12.2015 22:32 6,8 C 6,7 C 5,6 C 98 % 15 lf 1021,4 hPa 0,0 l/m 0 min 0 min 0 W/m 8,4 km/h (2 Bft) 97,87 %
13.12.2015 22:34 6,8 C 6,7 C 5,6 C 98 % 15 lf 1021,3 hPa 0,0 l/m 0 min 2 min 0 W/m 10,5 km/h (2 Bft) 97,87 %
13.12.2015 22:36 6,8 C 6,7 C 5,6 C 98 % 15 lf 1021,4 hPa 0,0 l/m 0 min 0 min 0 W/m 8,4 km/h (2 Bft) 97,87 %
13.12.2015 22:38 6,8 C 6,7 C 5,6 C 98 % 15 lf 1021,4 hPa 0,0 l/m 0 min 0 min 0 W/m 10,5 km/h (2 Bft) 97,83 %
13.12.2015 22:40 6,8 C 6,7 C 5,6 C 98 % 15 lf 1021,4 hPa 0,0 l/m 0 min 0 min 0 W/m 8,4 km/h (2 Bft) 97,87 %
13.12.2015 22:42 6,8 C 6,7 C 5,6 C 98 % 15 lf 1021,4 hPa 0,0 l/m 0 min 0 min 0 W/m 6,3 km/h (2 Bft) 95,74 %
13.12.2015 22:44 6,8 C 6,7 C 5,6 C 98 % 15 lf 1021,4 hPa 0,0 l/m 0 min 0 min 0 W/m 10,5 km/h (2 Bft) 95,74 %
13.12.2015 22:46 6,8 C 6,7 C 5,6 C 98 % 15 lf 1021,4 hPa 0,0 l/m 0 min 0 min 0 W/m 8,4 km/h (2 Bft) 97,87 %
13.12.2015 22:48 6,8 C 6,7 C 5,6 C 98 % 15 lf 1021,4 hPa 0,0 l/m 0 min 0 min 0 W/m 8,4 km/h (2 Bft) 97,83 %
13.12.2015 22:50 6,8 C 6,7 C 5,6 C 98 % 15 lf 1021,4 hPa 0,0 l/m 0 min 0 min 0 W/m 8,4 km/h (2 Bft) 97,87 %
13.12.2015 22:52 6,8 C 6,7 C 5,6 C 98 % 15 lf 1021,4 hPa 0,0 l/m 0 min 0 min 0 W/m 6,3 km/h (2 Bft) 93,62 %
13.12.2015 22:54 6,8 C 6,7 C 5,6 C 98 % 15 lf 1021,4 hPa 0,0 l/m 0 min 0 min 0 W/m 6,3 km/h (2 Bft) 93,62 %
13.12.2015 22:56 6,8 C 6,7 C 5,6 C 98 % 15 lf 1021,4 hPa 0,0 l/m 0 min 0 min 0 W/m 6,3 km/h (2 Bft) 95,74 %
13.12.2015 22:58 6,8 C 6,7 C 5,6 C 98 % 15 lf 1021,4 hPa 0,0 l/m 0 min 0 min 0 W/m 4,2 km/h (1 Bft) 95,74 %
13.12.2015 23:00 6,8 C 6,7 C 5,6 C 98 % 15 lf 1021,3 hPa 0,0 l/m 0 min 0 min 0 W/m 6,3 km/h (2 Bft) 95,65 %
13.12.2015 23:02 6,8 C 6,7 C 5,6 C 98 % 15 lf 1021,3 hPa 0,0 l/m 0 min 0 min 0 W/m 8,4 km/h (2 Bft) 100,00 %
13.12.2015 23:04 6,8 C 6,7 C 5,6 C 98 % 15 lf 1021,3 hPa 0,0 l/m 0 min 0 min 0 W/m 6,3 km/h (2 Bft) 95,74 %
13.12.2015 23:06 6,8 C 6,7 C 5,6 C 98 % 15 lf 1021,3 hPa 0,0 l/m 0 min 0 min 0 W/m 4,2 km/h (1 Bft) 97,87 %
13.12.2015 23:08 6,8 C 6,7 C 5,6 C 98 % 15 lf 1021,3 hPa 0,0 l/m 0 min 0 min 0 W/m 4,2 km/h (1 Bft) 95,74 %
13.12.2015 23:10 6,8 C 6,7 C 5,6 C 98 % 15 lf 1021,3 hPa 0,0 l/m 0 min 0 min 0 W/m 4,2 km/h (1 Bft) 93,62 %
13.12.2015 23:12 6,8 C 6,7 C 5,6 C 98 % 15 lf 1021,3 hPa 0,0 l/m 0 min 0 min 0 W/m 6,3 km/h (2 Bft) 91,30 %
13.12.2015 23:14 6,8 C 6,7 C 5,6 C 98 % 15 lf 1021,3 hPa 0,0 l/m 0 min 0 min 0 W/m 8,4 km/h (2 Bft) 95,74 %
13.12.2015 23:16 6,8 C 6,7 C 5,6 C 98 % 15 lf 1021,2 hPa 0,0 l/m 0 min 0 min 0 W/m 8,4 km/h (2 Bft) 93,62 %
13.12.2015 23:18 6,8 C 6,7 C 5,6 C 98 % 15 lf 1021,2 hPa 0,0 l/m 0 min 0 min 0 W/m 8,4 km/h (2 Bft) 97,87 %
13.12.2015 23:20 6,8 C 6,7 C 5,6 C 98 % 15 lf 1021,2 hPa 0,0 l/m 0 min 0 min 0 W/m 10,5 km/h (2 Bft) 95,74 %
13.12.2015 23:22 6,8 C 6,7 C 5,6 C 98 % 15 lf 1021,2 hPa 0,0 l/m 0 min 0 min 0 W/m 6,3 km/h (2 Bft) 97,87 %
13.12.2015 23:24 6,8 C 6,7 C 5,6 C 98 % 15 lf 1021,2 hPa 0,0 l/m 0 min 0 min 0 W/m 6,3 km/h (2 Bft) 93,48 %
13.12.2015 23:26 6,8 C 6,7 C 5,6 C 98 % 15 lf 1021,3 hPa 0,0 l/m 0 min 0 min 0 W/m 8,4 km/h (2 Bft) 93,62 %
13.12.2015 23:28 6,8 C 6,7 C 5,6 C 98 % 15 lf 1021,3 hPa 0,0 l/m 0 min 0 min 0 W/m 6,3 km/h (2 Bft) 95,74 %
13.12.2015 23:30 6,8 C 6,7 C 5,6 C 98 % 15 lf 1021,3 hPa 0,0 l/m 0 min 0 min 0 W/m 6,3 km/h (2 Bft) 95,74 %
13.12.2015 23:32 6,8 C 6,7 C 5,6 C 98 % 15 lf 1021,3 hPa 0,0 l/m 0 min 0 min 0 W/m 8,4 km/h (2 Bft) 97,87 %
13.12.2015 23:34 6,8 C 6,7 C 5,6 C 98 % 15 lf 1021,3 hPa 0,0 l/m 0 min 0 min 0 W/m 8,4 km/h (2 Bft) 93,62 %
13.12.2015 23:36 6,8 C 6,7 C 5,6 C 98 % 15 lf 1021,3 hPa 0,0 l/m 0 min 0 min 0 W/m 6,3 km/h (2 Bft) 91,30 %
13.12.2015 23:38 6,8 C 6,7 C 5,6 C 98 % 15 lf 1021,3 hPa 0,0 l/m 0 min 0 min 0 W/m 6,3 km/h (2 Bft) 93,62 %
13.12.2015 23:40 6,8 C 6,7 C 5,6 C 98 % 15 lf 1021,3 hPa 0,0 l/m 0 min 0 min 0 W/m 6,3 km/h (2 Bft) 95,74 %
13.12.2015 23:42 6,8 C 6,7 C 5,6 C 98 % 15 lf 1021,3 hPa 0,0 l/m 0 min 0 min 0 W/m 8,4 km/h (2 Bft) 95,74 %
13.12.2015 23:44 6,8 C 6,7 C 5,6 C 98 % 15 lf 1021,3 hPa 0,0 l/m 0 min 0 min 0 W/m 8,4 km/h (2 Bft) 95,74 %
13.12.2015 23:46 6,8 C 6,7 C 5,6 C 98 % 15 lf 1021,3 hPa 0,0 l/m 0 min 0 min 0 W/m 8,4 km/h (2 Bft) 95,74 %
13.12.2015 23:48 6,8 C 6,7 C 5,6 C 98 % 15 lf 1021,2 hPa 0,0 l/m 0 min 0 min 0 W/m 10,5 km/h (2 Bft) 97,83 %
13.12.2015 23:50 6,8 C 6,7 C 5,6 C 98 % 15 lf 1021,2 hPa 0,0 l/m 0 min 0 min 0 W/m 10,5 km/h (2 Bft) 95,74 %
13.12.2015 23:52 6,8 C 6,7 C 5,6 C 98 % 15 lf 1021,2 hPa 0,0 l/m 0 min 0 min 0 W/m 8,4 km/h (2 Bft) 93,62 %
13.12.2015 23:54 6,8 C 6,7 C 5,6 C 98 % 15 lf 1021,2 hPa 0,0 l/m 0 min 0 min 0 W/m 8,4 km/h (2 Bft) 97,87 %
13.12.2015 23:56 6,8 C 6,7 C 5,6 C 98 % 15 lf 1021,2 hPa 0,0 l/m 0 min 0 min 0 W/m 10,5 km/h (2 Bft) 97,87 %
13.12.2015 23:58 6,8 C 6,7 C 5,6 C 98 % 15 lf 1021,2 hPa 0,0 l/m 0 min 0 min 0 W/m 6,3 km/h (2 Bft) 97,83 %
_ Min-Zeit 19:14 07:10 07:10 00:12 00:00 02:10 - - - - 08:34 00:02
Minimum _ 6,6 C 6,7 C 5,6 C 85 % 0 lf 1014,1 hPa - - - - 0,0 km/h (0 Bft) 12,50 %
_ Max-Zeit 00:00 00:00 00:00 21:20 03:36 19:06 05:36 13:42 03:32 13:44 01:06 02:38
Maximum _ 10,4 C 10,6 C 8,9 C 98 % 15 lf 1021,7 hPa 0,2 l/m 2 min 2 min 165 W/m 62,8 km/h
W-SW (8 Bft)
100,00 %
Durchschnitt _ 7,9 C 7,9 C 6,6 C 94 % 12 lf 1018,8 hPa #3,6 l/m #12 min. #9:55 h 56 W/m 15,6 km/h (3 Bft) 95,88 %
© 2015 W. Hausmann